GEFSNE_prec_meanprecacc_144.txt.gz
Total_Precipitation_Accumulation
0.24 0.24 0.27 0.25 0.25 0.26 0.29 0.39 0.54 0.38 0.10 0.03 0.05 0.06 0.09 0.13 0.17 0.18 0.17 0.20 0.27 0.35 0.38 0.41 0.47 0.57 0.89 1.57 2.53 3.21 3.09 2.45 1.74 1.39 1.43 1.72 2.16 2.60
0.29 0.30 0.31 0.32 0.31 0.31 0.32 0.33 0.41 0.49 0.30 0.06 0.06 0.07 0.10 0.12 0.17 0.18 0.19 0.21 0.23 0.28 0.33 0.36 0.41 0.51 0.67 0.97 1.57 2.49 3.09 3.04 2.45 1.88 1.69 1.81 2.06 2.52
0.31 0.35 0.36 0.36 0.36 0.34 0.35 0.36 0.35 0.41 0.41 0.11 0.04 0.07 0.13 0.16 0.18 0.18 0.19 0.18 0.16 0.20 0.27 0.34 0.40 0.48 0.60 0.79 1.06 1.66 2.53 3.05 3.04 2.57 2.18 2.02 2.01 2.17
0.45 0.45 0.46 0.47 0.49 0.47 0.47 0.43 0.38 0.36 0.42 0.27 0.08 0.07 0.14 0.21 0.27 0.26 0.22 0.19 0.16 0.16 0.21 0.29 0.36 0.43 0.55 0.69 0.87 1.16 1.75 2.49 2.96 2.93 2.54 2.19 2.04 2.11
0.74 0.73 0.70 0.67 0.68 0.66 0.64 0.56 0.46 0.37 0.37 0.35 0.19 0.10 0.14 0.23 0.34 0.35 0.30 0.23 0.17 0.18 0.21 0.25 0.31 0.37 0.45 0.57 0.71 0.88 1.15 1.58 2.20 2.75 2.92 2.64 2.27 2.13
0.84 0.87 0.93 0.96 0.96 0.92 0.89 0.74 0.59 0.50 0.44 0.43 0.33 0.21 0.18 0.25 0.43 0.48 0.43 0.34 0.25 0.20 0.23 0.25 0.30 0.36 0.39 0.41 0.47 0.61 0.87 1.26 1.70 2.28 2.81 2.94 2.61 2.31
0.60 0.63 0.75 0.92 1.05 1.13 1.17 1.02 0.88 0.82 0.71 0.64 0.52 0.41 0.32 0.37 0.51 0.58 0.63 0.56 0.46 0.35 0.28 0.23 0.24 0.26 0.27 0.31 0.40 0.51 0.69 0.94 1.25 1.70 2.28 2.78 2.83 2.61
0.41 0.41 0.46 0.62 0.75 0.87 1.02 1.08 1.14 1.20 1.13 0.97 0.79 0.64 0.47 0.43 0.52 0.70 0.77 0.84 0.77 0.54 0.46 0.38 0.32 0.30 0.27 0.25 0.31 0.41 0.58 0.80 1.06 1.34 1.71 2.20 2.62 2.74
0.24 0.25 0.26 0.35 0.49 0.53 0.63 0.75 0.90 1.06 1.20 1.19 1.12 0.85 0.62 0.52 0.63 0.79 0.86 0.93 0.85 0.71 0.73 0.71 0.56 0.45 0.36 0.35 0.39 0.42 0.51 0.66 0.86 1.07 1.32 1.65 2.08 2.50
0.19 0.17 0.16 0.21 0.36 0.47 0.57 0.58 0.59 0.75 1.00 1.18 1.28 1.10 0.84 0.74 0.87 1.05 1.15 1.14 0.99 0.93 0.96 1.00 0.76 0.61 0.55 0.50 0.48 0.44 0.45 0.52 0.66 0.84 1.04 1.26 1.57 2.00
0.15 0.17 0.15 0.15 0.32 0.48 0.50 0.44 0.40 0.50 0.65 0.90 1.10 1.13 1.07 1.05 1.12 1.33 1.44 1.48 1.37 1.14 1.11 1.17 1.01 0.80 0.73 0.73 0.66 0.54 0.46 0.47 0.54 0.67 0.82 0.99 1.20 1.59
0.14 0.14 0.22 0.27 0.37 0.43 0.41 0.42 0.46 0.43 0.43 0.49 0.57 0.66 0.71 0.73 0.92 1.17 1.31 1.43 1.44 1.47 1.28 1.21 1.25 1.17 1.20 0.97 0.77 0.56 0.46 0.47 0.52 0.57 0.65 0.76 0.94 1.15
0.17 0.17 0.19 0.29 0.34 0.36 0.39 0.41 0.52 0.47 0.39 0.43 0.48 0.50 0.55 0.61 0.68 0.89 1.13 1.31 1.45 1.47 1.30 1.32 1.52 1.36 1.31 1.17 0.93 0.71 0.50 0.43 0.45 0.56 0.63 0.71 0.80 0.88
0.20 0.14 0.15 0.22 0.27 0.33 0.35 0.40 0.43 0.43 0.41 0.41 0.40 0.38 0.44 0.55 0.63 0.74 0.91 1.06 1.17 1.25 1.18 1.29 1.62 1.48 1.32 1.11 0.96 0.89 0.69 0.53 0.45 0.47 0.53 0.74 0.86 0.90
0.31 0.28 0.23 0.25 0.26 0.21 0.22 0.30 0.32 0.32 0.39 0.40 0.35 0.31 0.36 0.48 0.55 0.64 0.72 0.82 0.93 1.02 1.11 1.18 1.40 1.51 1.45 1.21 0.91 0.84 0.85 0.78 0.59 0.52 0.53 0.57 0.64 0.73
0.33 0.29 0.25 0.23 0.19 0.14 0.13 0.15 0.17 0.23 0.33 0.36 0.32 0.28 0.29 0.37 0.47 0.59 0.72 0.78 0.88 0.93 1.05 1.17 1.34 1.60 1.59 1.19 0.99 0.87 0.78 0.87 0.76 0.57 0.54 0.56 0.57 0.54
0.39 0.37 0.29 0.22 0.20 0.16 0.12 0.10 0.11 0.16 0.24 0.27 0.29 0.31 0.33 0.37 0.43 0.53 0.72 0.84 0.93 0.90 1.04 1.26 1.39 1.55 1.62 1.49 1.30 0.98 0.78 0.71 0.71 0.61 0.57 0.64 0.70 0.63
0.43 0.40 0.25 0.18 0.17 0.16 0.15 0.13 0.12 0.14 0.17 0.24 0.29 0.32 0.36 0.41 0.45 0.50 0.67 0.84 0.91 0.87 0.96 1.19 1.42 1.66 1.79 1.77 1.53 1.14 0.90 0.76 0.75 0.70 0.60 0.64 0.77 0.80
0.31 0.25 0.17 0.15 0.15 0.15 0.16 0.16 0.14 0.12 0.15 0.22 0.27 0.29 0.34 0.40 0.46 0.52 0.61 0.73 0.81 0.85 0.92 1.08 1.37 1.64 1.75 1.74 1.79 1.46 1.12 0.93 0.89 0.90 0.78 0.62 0.63 0.73
0.18 0.20 0.18 0.15 0.15 0.17 0.17 0.17 0.16 0.15 0.17 0.20 0.23 0.26 0.32 0.41 0.45 0.47 0.54 0.67 0.77 0.84 0.90 1.01 1.26 1.52 1.61 1.49 1.54 1.63 1.55 1.22 1.01 1.00 0.93 0.78 0.72 0.86
0.15 0.16 0.16 0.16 0.17 0.18 0.18 0.19 0.20 0.20 0.18 0.21 0.22 0.23 0.28 0.37 0.41 0.40 0.47 0.57 0.71 0.80 0.84 0.89 1.07 1.33 1.52 1.48 1.39 1.40 1.61 1.65 1.26 1.02 0.93 0.93 0.93 0.96
0.16 0.17 0.16 0.17 0.19 0.20 0.21 0.21 0.21 0.20 0.18 0.19 0.19 0.20 0.23 0.30 0.35 0.36 0.42 0.52 0.60 0.67 0.74 0.80 0.95 1.28 1.58 1.60 1.43 1.34 1.51 1.73 1.76 1.43 1.09 0.90 0.86 0.86
0.22 0.22 0.20 0.19 0.19 0.21 0.23 0.23 0.22 0.19 0.16 0.17 0.18 0.18 0.20 0.24 0.26 0.31 0.37 0.44 0.52 0.59 0.69 0.82 0.95 1.19 1.48 1.58 1.53 1.40 1.40 1.52 1.63 1.57 1.49 1.19 0.77 0.56

GEFSNE_prec_meanprecacc_150.txt.gz
Total_Precipitation_Accumulation
0.24 0.24 0.27 0.25 0.25 0.26 0.29 0.39 0.55 0.39 0.10 0.03 0.05 0.06 0.09 0.13 0.17 0.18 0.17 0.20 0.27 0.35 0.38 0.42 0.47 0.57 0.90 1.57 2.53 3.21 3.10 2.45 1.75 1.40 1.44 1.73 2.18 2.63
0.29 0.30 0.32 0.32 0.32 0.32 0.33 0.34 0.42 0.50 0.31 0.06 0.06 0.07 0.10 0.12 0.17 0.18 0.19 0.21 0.23 0.28 0.34 0.37 0.41 0.51 0.67 0.98 1.57 2.50 3.10 3.04 2.46 1.89 1.70 1.83 2.07 2.54
0.31 0.35 0.37 0.36 0.37 0.34 0.36 0.36 0.36 0.42 0.42 0.11 0.04 0.07 0.13 0.16 0.18 0.19 0.20 0.18 0.17 0.20 0.27 0.35 0.40 0.48 0.61 0.79 1.07 1.66 2.54 3.06 3.05 2.58 2.19 2.03 2.02 2.18
0.46 0.45 0.46 0.47 0.49 0.47 0.48 0.44 0.39 0.37 0.43 0.28 0.09 0.07 0.14 0.22 0.28 0.27 0.23 0.19 0.16 0.17 0.22 0.29 0.37 0.44 0.55 0.69 0.87 1.16 1.75 2.49 2.97 2.94 2.55 2.20 2.05 2.13
0.74 0.73 0.71 0.68 0.69 0.67 0.66 0.58 0.47 0.38 0.38 0.36 0.20 0.12 0.16 0.25 0.35 0.36 0.31 0.24 0.18 0.19 0.22 0.26 0.32 0.38 0.46 0.57 0.72 0.89 1.15 1.58 2.20 2.75 2.93 2.65 2.29 2.15
0.85 0.88 0.93 0.96 0.97 0.93 0.90 0.75 0.60 0.51 0.45 0.45 0.35 0.23 0.20 0.27 0.45 0.49 0.45 0.35 0.26 0.21 0.24 0.25 0.31 0.37 0.39 0.42 0.47 0.61 0.87 1.26 1.71 2.28 2.82 2.95 2.62 2.32
0.60 0.64 0.75 0.92 1.06 1.14 1.17 1.03 0.89 0.83 0.73 0.65 0.54 0.43 0.34 0.39 0.53 0.59 0.64 0.57 0.47 0.36 0.29 0.24 0.25 0.26 0.27 0.32 0.40 0.51 0.70 0.94 1.26 1.71 2.29 2.80 2.85 2.63
0.41 0.42 0.46 0.63 0.76 0.88 1.03 1.09 1.15 1.22 1.15 0.99 0.81 0.66 0.49 0.45 0.54 0.71 0.79 0.85 0.78 0.54 0.46 0.38 0.33 0.30 0.27 0.25 0.31 0.41 0.58 0.81 1.06 1.35 1.72 2.21 2.63 2.75
0.25 0.26 0.27 0.35 0.50 0.54 0.64 0.78 0.92 1.10 1.23 1.21 1.14 0.87 0.63 0.53 0.64 0.81 0.87 0.94 0.85 0.72 0.73 0.71 0.56 0.45 0.37 0.35 0.40 0.42 0.51 0.67 0.86 1.08 1.33 1.66 2.09 2.51
0.20 0.18 0.16 0.21 0.37 0.48 0.58 0.60 0.61 0.77 1.02 1.19 1.29 1.11 0.85 0.75 0.89 1.07 1.17 1.16 1.00 0.93 0.97 1.01 0.77 0.62 0.56 0.51 0.49 0.44 0.46 0.52 0.67 0.84 1.04 1.27 1.58 2.01
0.17 0.18 0.17 0.16 0.34 0.50 0.51 0.46 0.42 0.52 0.67 0.92 1.12 1.15 1.09 1.07 1.14 1.35 1.45 1.49 1.38 1.16 1.12 1.18 1.02 0.81 0.75 0.74 0.67 0.55 0.46 0.47 0.54 0.67 0.83 1.00 1.21 1.59
0.15 0.15 0.24 0.29 0.39 0.44 0.42 0.43 0.48 0.45 0.45 0.51 0.59 0.68 0.73 0.75 0.95 1.19 1.33 1.45 1.47 1.49 1.29 1.23 1.27 1.19 1.21 0.97 0.78 0.56 0.47 0.47 0.52 0.57 0.65 0.76 0.94 1.15
0.17 0.18 0.20 0.32 0.36 0.37 0.40 0.42 0.54 0.49 0.40 0.45 0.49 0.51 0.57 0.63 0.70 0.91 1.15 1.33 1.47 1.49 1.32 1.34 1.53 1.37 1.32 1.17 0.94 0.71 0.50 0.43 0.45 0.56 0.63 0.71 0.81 0.88
0.21 0.15 0.16 0.23 0.28 0.34 0.36 0.41 0.44 0.44 0.42 0.42 0.41 0.40 0.46 0.56 0.65 0.76 0.92 1.07 1.19 1.27 1.20 1.30 1.63 1.49 1.33 1.12 0.97 0.89 0.69 0.53 0.45 0.47 0.53 0.74 0.86 0.90
0.33 0.30 0.24 0.26 0.27 0.22 0.24 0.32 0.34 0.33 0.40 0.42 0.36 0.32 0.37 0.49 0.56 0.66 0.74 0.84 0.95 1.03 1.12 1.18 1.41 1.52 1.45 1.22 0.91 0.84 0.85 0.78 0.59 0.52 0.53 0.57 0.64 0.73
0.36 0.31 0.27 0.25 0.20 0.16 0.16 0.17 0.19 0.25 0.34 0.38 0.34 0.30 0.31 0.39 0.50 0.61 0.74 0.80 0.90 0.94 1.06 1.18 1.34 1.60 1.59 1.19 0.99 0.87 0.78 0.87 0.76 0.57 0.54 0.56 0.57 0.54
0.42 0.38 0.30 0.23 0.22 0.18 0.14 0.12 0.13 0.18 0.25 0.29 0.31 0.33 0.35 0.39 0.45 0.55 0.74 0.86 0.95 0.91 1.04 1.27 1.39 1.55 1.62 1.49 1.30 0.98 0.78 0.71 0.71 0.61 0.57 0.65 0.70 0.63
0.45 0.41 0.26 0.19 0.18 0.17 0.17 0.16 0.15 0.16 0.19 0.26 0.31 0.33 0.38 0.42 0.47 0.53 0.68 0.86 0.92 0.88 0.97 1.20 1.43 1.66 1.80 1.77 1.53 1.14 0.90 0.76 0.75 0.70 0.60 0.64 0.77 0.80
0.31 0.25 0.18 0.17 0.17 0.17 0.17 0.17 0.15 0.13 0.17 0.24 0.29 0.31 0.35 0.42 0.47 0.53 0.62 0.74 0.82 0.86 0.93 1.09 1.38 1.65 1.76 1.75 1.79 1.46 1.13 0.93 0.90 0.90 0.78 0.62 0.64 0.73
0.19 0.20 0.18 0.16 0.16 0.18 0.19 0.19 0.17 0.16 0.18 0.22 0.24 0.27 0.34 0.42 0.46 0.49 0.56 0.69 0.78 0.85 0.91 1.01 1.27 1.53 1.63 1.50 1.55 1.63 1.55 1.23 1.02 1.01 0.93 0.78 0.73 0.86
0.15 0.16 0.16 0.17 0.18 0.18 0.19 0.19 0.21 0.21 0.20 0.22 0.23 0.24 0.29 0.39 0.43 0.42 0.48 0.58 0.72 0.81 0.85 0.89 1.08 1.33 1.53 1.49 1.39 1.40 1.61 1.65 1.27 1.03 0.94 0.94 0.93 0.97
0.16 0.17 0.17 0.17 0.19 0.21 0.22 0.22 0.22 0.21 0.19 0.21 0.21 0.21 0.24 0.32 0.37 0.37 0.44 0.53 0.61 0.68 0.75 0.81 0.96 1.28 1.58 1.61 1.43 1.34 1.51 1.73 1.76 1.43 1.10 0.92 0.90 0.91
0.23 0.23 0.21 0.20 0.19 0.21 0.23 0.23 0.23 0.20 0.18 0.18 0.19 0.19 0.22 0.26 0.28 0.32 0.38 0.45 0.53 0.60 0.70 0.82 0.95 1.19 1.48 1.59 1.53 1.40 1.40 1.52 1.63 1.57 1.50 1.19 0.78 0.57

GEFSNE_prec_meanprecacc_156.txt.gz
Total_Precipitation_Accumulation
0.25 0.25 0.27 0.25 0.25 0.26 0.29 0.40 0.56 0.40 0.11 0.04 0.05 0.07 0.09 0.13 0.17 0.18 0.17 0.20 0.27 0.35 0.39 0.42 0.47 0.58 0.90 1.57 2.54 3.22 3.10 2.46 1.75 1.40 1.45 1.74 2.20 2.65
0.29 0.31 0.32 0.32 0.32 0.32 0.34 0.35 0.43 0.52 0.32 0.06 0.06 0.08 0.10 0.13 0.17 0.19 0.19 0.21 0.24 0.29 0.34 0.37 0.42 0.52 0.67 0.98 1.58 2.50 3.10 3.05 2.46 1.90 1.71 1.84 2.09 2.56
0.31 0.35 0.37 0.36 0.37 0.35 0.36 0.37 0.36 0.43 0.43 0.12 0.05 0.08 0.14 0.17 0.18 0.19 0.20 0.19 0.17 0.21 0.28 0.35 0.41 0.49 0.61 0.80 1.07 1.67 2.54 3.07 3.06 2.58 2.20 2.04 2.03 2.20
0.46 0.46 0.46 0.47 0.49 0.48 0.48 0.44 0.40 0.38 0.44 0.30 0.10 0.08 0.15 0.22 0.28 0.27 0.23 0.20 0.17 0.18 0.23 0.30 0.38 0.44 0.56 0.70 0.88 1.17 1.76 2.49 2.97 2.94 2.56 2.21 2.06 2.14
0.74 0.74 0.71 0.68 0.70 0.68 0.66 0.59 0.48 0.39 0.39 0.38 0.21 0.12 0.16 0.25 0.35 0.36 0.32 0.24 0.19 0.20 0.23 0.27 0.33 0.39 0.47 0.58 0.72 0.89 1.16 1.58 2.21 2.76 2.94 2.66 2.30 2.16
0.85 0.88 0.94 0.97 0.97 0.93 0.91 0.76 0.61 0.52 0.46 0.46 0.36 0.24 0.21 0.28 0.46 0.51 0.46 0.36 0.27 0.22 0.25 0.27 0.32 0.37 0.39 0.42 0.47 0.62 0.88 1.27 1.71 2.29 2.83 2.96 2.63 2.33
0.60 0.64 0.76 0.93 1.07 1.14 1.18 1.04 0.90 0.84 0.74 0.67 0.56 0.44 0.36 0.41 0.55 0.61 0.65 0.58 0.48 0.37 0.30 0.24 0.25 0.26 0.28 0.32 0.40 0.52 0.70 0.95 1.26 1.72 2.30 2.81 2.86 2.64
0.42 0.42 0.47 0.63 0.76 0.88 1.04 1.10 1.16 1.23 1.17 1.01 0.84 0.68 0.51 0.47 0.55 0.73 0.80 0.87 0.79 0.55 0.47 0.39 0.33 0.31 0.27 0.26 0.32 0.42 0.59 0.81 1.07 1.36 1.73 2.22 2.64 2.76
0.25 0.27 0.27 0.36 0.51 0.54 0.66 0.80 0.95 1.13 1.26 1.24 1.16 0.89 0.65 0.54 0.65 0.82 0.89 0.95 0.86 0.72 0.74 0.72 0.57 0.46 0.38 0.36 0.40 0.42 0.51 0.67 0.87 1.08 1.33 1.66 2.10 2.52
0.20 0.18 0.17 0.22 0.38 0.50 0.61 0.63 0.64 0.80 1.05 1.21 1.30 1.12 0.86 0.76 0.90 1.08 1.19 1.17 1.01 0.94 0.98 1.02 0.78 0.62 0.56 0.52 0.49 0.45 0.46 0.53 0.67 0.84 1.05 1.28 1.59 2.02
0.18 0.19 0.19 0.18 0.38 0.54 0.54 0.48 0.44 0.54 0.69 0.94 1.13 1.16 1.10 1.08 1.15 1.36 1.46 1.51 1.40 1.17 1.13 1.18 1.03 0.81 0.75 0.74 0.67 0.55 0.47 0.47 0.54 0.68 0.83 1.00 1.21 1.60
0.16 0.17 0.26 0.31 0.42 0.47 0.43 0.45 0.49 0.47 0.46 0.53 0.60 0.69 0.74 0.77 0.97 1.20 1.34 1.47 1.48 1.50 1.30 1.24 1.27 1.19 1.21 0.97 0.78 0.56 0.47 0.48 0.52 0.57 0.66 0.76 0.95 1.15
0.19 0.19 0.22 0.34 0.38 0.39 0.41 0.43 0.55 0.50 0.40 0.45 0.50 0.52 0.58 0.63 0.71 0.91 1.16 1.34 1.48 1.51 1.33 1.35 1.54 1.38 1.33 1.18 0.94 0.71 0.50 0.43 0.45 0.56 0.63 0.71 0.81 0.89
0.24 0.16 0.17 0.25 0.30 0.35 0.37 0.42 0.46 0.45 0.43 0.43 0.42 0.40 0.47 0.57 0.66 0.76 0.93 1.08 1.20 1.28 1.21 1.32 1.64 1.50 1.34 1.13 0.97 0.89 0.69 0.53 0.45 0.47 0.53 0.74 0.86 0.91
0.36 0.32 0.26 0.28 0.28 0.23 0.25 0.33 0.35 0.34 0.41 0.43 0.37 0.33 0.38 0.49 0.57 0.66 0.74 0.85 0.96 1.04 1.13 1.20 1.42 1.53 1.46 1.23 0.92 0.85 0.85 0.78 0.59 0.52 0.53 0.57 0.64 0.73
0.39 0.34 0.30 0.27 0.22 0.18 0.17 0.18 0.19 0.26 0.35 0.39 0.35 0.31 0.32 0.40 0.50 0.62 0.76 0.82 0.92 0.96 1.07 1.19 1.35 1.61 1.59 1.20 0.99 0.88 0.78 0.87 0.76 0.57 0.54 0.56 0.57 0.54
0.43 0.41 0.33 0.26 0.24 0.20 0.16 0.13 0.14 0.19 0.27 0.30 0.32 0.34 0.36 0.40 0.46 0.56 0.76 0.88 0.96 0.93 1.06 1.28 1.39 1.55 1.62 1.50 1.30 0.98 0.78 0.71 0.71 0.61 0.57 0.65 0.70 0.63
0.46 0.43 0.28 0.21 0.20 0.19 0.19 0.17 0.16 0.17 0.20 0.27 0.31 0.34 0.38 0.43 0.48 0.54 0.70 0.87 0.93 0.89 0.98 1.21 1.44 1.67 1.80 1.77 1.53 1.14 0.90 0.77 0.75 0.70 0.61 0.64 0.77 0.80
0.33 0.26 0.18 0.17 0.18 0.18 0.18 0.18 0.16 0.14 0.18 0.25 0.30 0.32 0.38 0.44 0.50 0.56 0.64 0.76 0.84 0.87 0.94 1.09 1.38 1.66 1.76 1.75 1.80 1.46 1.13 0.93 0.90 0.90 0.78 0.63 0.64 0.73
0.20 0.21 0.19 0.16 0.17 0.19 0.19 0.19 0.18 0.17 0.19 0.23 0.26 0.29 0.36 0.44 0.48 0.50 0.57 0.70 0.79 0.85 0.92 1.02 1.28 1.54 1.64 1.51 1.55 1.63 1.56 1.23 1.02 1.01 0.93 0.79 0.73 0.86
0.16 0.16 0.17 0.18 0.19 0.19 0.19 0.20 0.22 0.22 0.21 0.23 0.25 0.26 0.31 0.40 0.43 0.42 0.49 0.59 0.72 0.82 0.86 0.90 1.08 1.34 1.53 1.49 1.40 1.40 1.61 1.65 1.27 1.04 0.95 0.94 0.94 0.97
0.17 0.18 0.18 0.19 0.21 0.22 0.23 0.23 0.23 0.22 0.21 0.22 0.22 0.22 0.25 0.32 0.37 0.37 0.44 0.53 0.61 0.69 0.76 0.81 0.96 1.29 1.59 1.61 1.44 1.34 1.51 1.73 1.76 1.43 1.11 0.94 0.94 0.94
0.24 0.24 0.22 0.21 0.21 0.22 0.24 0.24 0.24 0.21 0.18 0.19 0.20 0.20 0.22 0.26 0.28 0.32 0.38 0.45 0.53 0.61 0.70 0.82 0.95 1.20 1.48 1.59 1.53 1.40 1.40 1.52 1.63 1.57 1.50 1.20 0.79 0.59

GEFSNE_prec_meanprecacc_162.txt.gz
Total_Precipitation_Accumulation
0.25 0.25 0.27 0.25 0.25 0.26 0.30 0.40 0.56 0.40 0.11 0.04 0.05 0.07 0.09 0.13 0.18 0.18 0.17 0.20 0.27 0.35 0.39 0.42 0.47 0.58 0.90 1.57 2.54 3.22 3.10 2.46 1.76 1.41 1.47 1.77 2.23 2.68
0.29 0.31 0.32 0.32 0.32 0.32 0.34 0.35 0.43 0.52 0.32 0.07 0.06 0.08 0.10 0.13 0.18 0.19 0.19 0.21 0.24 0.29 0.34 0.37 0.42 0.52 0.67 0.98 1.58 2.50 3.11 3.06 2.47 1.91 1.72 1.86 2.11 2.58
0.31 0.36 0.37 0.36 0.37 0.35 0.36 0.37 0.37 0.44 0.44 0.12 0.05 0.08 0.14 0.17 0.19 0.19 0.20 0.19 0.17 0.21 0.28 0.35 0.41 0.49 0.61 0.80 1.08 1.67 2.55 3.07 3.06 2.59 2.21 2.06 2.05 2.21
0.46 0.46 0.47 0.47 0.50 0.48 0.48 0.45 0.40 0.39 0.45 0.30 0.10 0.08 0.15 0.23 0.28 0.27 0.23 0.20 0.17 0.18 0.24 0.31 0.38 0.45 0.57 0.71 0.88 1.17 1.76 2.50 2.98 2.95 2.57 2.22 2.07 2.15
0.74 0.74 0.71 0.69 0.70 0.68 0.66 0.59 0.48 0.40 0.40 0.39 0.22 0.13 0.17 0.25 0.35 0.36 0.32 0.25 0.19 0.21 0.24 0.28 0.34 0.40 0.47 0.58 0.72 0.89 1.16 1.59 2.21 2.77 2.94 2.67 2.31 2.17
0.85 0.88 0.94 0.97 0.98 0.94 0.91 0.76 0.61 0.53 0.47 0.47 0.37 0.25 0.22 0.28 0.46 0.51 0.46 0.37 0.27 0.23 0.26 0.28 0.32 0.38 0.40 0.42 0.48 0.62 0.88 1.27 1.72 2.29 2.84 2.97 2.64 2.34
0.61 0.64 0.76 0.94 1.07 1.15 1.19 1.04 0.90 0.85 0.75 0.68 0.57 0.45 0.36 0.41 0.56 0.61 0.66 0.58 0.49 0.37 0.30 0.25 0.25 0.27 0.28 0.33 0.41 0.52 0.71 0.95 1.26 1.72 2.30 2.81 2.86 2.64
0.42 0.42 0.47 0.64 0.77 0.89 1.05 1.11 1.17 1.24 1.18 1.02 0.84 0.69 0.52 0.48 0.56 0.73 0.81 0.87 0.80 0.55 0.47 0.39 0.33 0.31 0.27 0.26 0.32 0.42 0.59 0.81 1.07 1.36 1.73 2.23 2.65 2.77
0.26 0.27 0.27 0.36 0.51 0.55 0.66 0.81 0.97 1.16 1.28 1.25 1.18 0.90 0.66 0.55 0.66 0.83 0.89 0.96 0.87 0.73 0.74 0.72 0.57 0.46 0.38 0.36 0.40 0.43 0.52 0.67 0.87 1.08 1.33 1.67 2.11 2.53
0.21 0.19 0.17 0.22 0.38 0.51 0.62 0.64 0.67 0.82 1.07 1.23 1.32 1.13 0.87 0.77 0.90 1.09 1.19 1.17 1.02 0.95 0.98 1.02 0.78 0.62 0.56 0.52 0.49 0.45 0.46 0.53 0.67 0.84 1.05 1.28 1.59 2.02
0.19 0.20 0.19 0.19 0.39 0.56 0.55 0.50 0.46 0.55 0.70 0.96 1.15 1.17 1.11 1.09 1.16 1.36 1.47 1.52 1.41 1.17 1.13 1.19 1.03 0.81 0.75 0.74 0.67 0.55 0.47 0.47 0.54 0.68 0.83 1.00 1.21 1.60
0.18 0.19 0.28 0.32 0.43 0.49 0.44 0.46 0.51 0.48 0.47 0.54 0.62 0.71 0.75 0.78 0.98 1.21 1.35 1.48 1.49 1.51 1.30 1.24 1.27 1.20 1.22 0.98 0.78 0.57 0.47 0.48 0.52 0.58 0.66 0.77 0.95 1.16
0.22 0.22 0.24 0.35 0.39 0.40 0.42 0.44 0.57 0.51 0.42 0.47 0.51 0.53 0.58 0.64 0.71 0.92 1.16 1.34 1.49 1.51 1.33 1.36 1.55 1.39 1.34 1.19 0.94 0.72 0.50 0.43 0.46 0.56 0.64 0.71 0.81 0.89
0.27 0.19 0.20 0.29 0.32 0.37 0.39 0.43 0.47 0.46 0.44 0.44 0.43 0.41 0.47 0.57 0.66 0.77 0.93 1.08 1.20 1.29 1.22 1.33 1.66 1.52 1.36 1.14 0.98 0.90 0.69 0.54 0.45 0.47 0.53 0.75 0.86 0.91
0.40 0.37 0.30 0.32 0.31 0.25 0.27 0.34 0.36 0.35 0.42 0.43 0.38 0.33 0.38 0.50 0.57 0.66 0.75 0.86 0.97 1.05 1.14 1.21 1.43 1.54 1.48 1.24 0.93 0.85 0.86 0.78 0.59 0.52 0.53 0.57 0.64 0.73
0.45 0.39 0.34 0.31 0.25 0.20 0.19 0.20 0.21 0.27 0.37 0.40 0.35 0.31 0.32 0.41 0.51 0.63 0.76 0.83 0.93 0.97 1.08 1.20 1.37 1.62 1.60 1.21 1.00 0.88 0.78 0.88 0.76 0.57 0.54 0.56 0.57 0.54
0.47 0.44 0.36 0.29 0.26 0.22 0.17 0.14 0.15 0.20 0.28 0.31 0.33 0.35 0.36 0.40 0.47 0.57 0.77 0.89 0.98 0.94 1.07 1.30 1.41 1.57 1.63 1.50 1.31 0.99 0.78 0.71 0.71 0.61 0.57 0.65 0.70 0.64
0.50 0.46 0.30 0.23 0.21 0.20 0.20 0.18 0.17 0.19 0.22 0.28 0.32 0.35 0.39 0.44 0.49 0.55 0.72 0.89 0.95 0.91 1.00 1.23 1.46 1.68 1.81 1.78 1.53 1.14 0.90 0.77 0.75 0.70 0.61 0.65 0.78 0.80
0.35 0.29 0.20 0.19 0.19 0.19 0.19 0.19 0.18 0.16 0.19 0.27 0.32 0.34 0.39 0.46 0.52 0.57 0.66 0.78 0.86 0.89 0.96 1.11 1.40 1.67 1.77 1.76 1.80 1.46 1.13 0.93 0.90 0.91 0.78 0.64 0.65 0.74
0.22 0.22 0.20 0.17 0.18 0.19 0.20 0.20 0.19 0.19 0.21 0.25 0.28 0.31 0.38 0.46 0.50 0.53 0.59 0.72 0.80 0.87 0.93 1.03 1.28 1.55 1.65 1.52 1.56 1.63 1.56 1.24 1.03 1.02 0.93 0.79 0.73 0.86
0.18 0.18 0.17 0.18 0.19 0.20 0.21 0.21 0.23 0.24 0.23 0.25 0.27 0.28 0.33 0.42 0.46 0.44 0.50 0.60 0.74 0.83 0.87 0.90 1.09 1.34 1.54 1.50 1.40 1.41 1.62 1.66 1.29 1.06 0.97 0.96 0.95 0.98
0.18 0.19 0.18 0.19 0.22 0.24 0.25 0.25 0.25 0.24 0.22 0.24 0.23 0.24 0.27 0.34 0.39 0.39 0.45 0.54 0.63 0.69 0.76 0.82 0.96 1.29 1.59 1.62 1.44 1.35 1.52 1.73 1.76 1.44 1.14 0.99 1.01 1.03
0.25 0.25 0.22 0.21 0.21 0.23 0.25 0.26 0.25 0.22 0.20 0.21 0.22 0.22 0.24 0.28 0.29 0.34 0.39 0.46 0.54 0.61 0.71 0.83 0.96 1.20 1.49 1.59 1.54 1.41 1.41 1.52 1.63 1.57 1.51 1.21 0.82 0.63

GEFSNE_prec_meanprecacc_168.txt.gz
Total_Precipitation_Accumulation
0.25 0.25 0.27 0.25 0.25 0.26 0.30 0.40 0.57 0.41 0.11 0.04 0.05 0.07 0.09 0.13 0.18 0.18 0.17 0.20 0.27 0.35 0.39 0.42 0.47 0.58 0.90 1.57 2.54 3.22 3.11 2.47 1.77 1.43 1.48 1.78 2.25 2.70
0.29 0.31 0.32 0.32 0.32 0.32 0.34 0.35 0.44 0.53 0.33 0.07 0.06 0.08 0.10 0.13 0.18 0.19 0.19 0.22 0.24 0.29 0.34 0.37 0.42 0.52 0.68 0.98 1.58 2.51 3.11 3.07 2.48 1.92 1.73 1.87 2.12 2.59
0.31 0.36 0.37 0.36 0.37 0.35 0.37 0.38 0.37 0.44 0.44 0.13 0.05 0.08 0.14 0.17 0.19 0.19 0.21 0.19 0.17 0.21 0.28 0.36 0.41 0.49 0.62 0.80 1.08 1.68 2.55 3.07 3.07 2.60 2.21 2.06 2.05 2.22
0.46 0.46 0.47 0.47 0.50 0.48 0.49 0.45 0.41 0.39 0.45 0.31 0.10 0.08 0.15 0.23 0.29 0.27 0.23 0.20 0.17 0.19 0.24 0.31 0.39 0.45 0.57 0.71 0.88 1.17 1.76 2.50 2.98 2.95 2.57 2.23 2.08 2.16
0.74 0.74 0.71 0.69 0.70 0.68 0.67 0.60 0.49 0.40 0.40 0.39 0.23 0.13 0.17 0.26 0.35 0.37 0.32 0.25 0.19 0.21 0.24 0.29 0.34 0.40 0.47 0.59 0.72 0.89 1.16 1.59 2.21 2.77 2.95 2.67 2.32 2.18
0.85 0.88 0.94 0.97 0.98 0.94 0.92 0.77 0.62 0.54 0.47 0.48 0.38 0.25 0.22 0.28 0.46 0.51 0.47 0.37 0.27 0.23 0.26 0.28 0.33 0.38 0.40 0.43 0.48 0.62 0.88 1.27 1.72 2.29 2.84 2.97 2.64 2.35
0.61 0.65 0.76 0.94 1.08 1.15 1.19 1.05 0.91 0.85 0.75 0.68 0.58 0.46 0.37 0.42 0.56 0.61 0.66 0.59 0.49 0.37 0.30 0.25 0.25 0.27 0.28 0.33 0.41 0.52 0.71 0.95 1.26 1.72 2.30 2.82 2.87 2.65
0.43 0.43 0.47 0.64 0.77 0.89 1.05 1.11 1.17 1.24 1.18 1.02 0.86 0.71 0.53 0.49 0.56 0.74 0.81 0.87 0.80 0.55 0.47 0.39 0.33 0.31 0.28 0.26 0.32 0.42 0.59 0.81 1.07 1.36 1.73 2.23 2.65 2.77
0.27 0.28 0.28 0.36 0.51 0.55 0.67 0.81 0.97 1.16 1.29 1.26 1.19 0.91 0.66 0.56 0.67 0.84 0.90 0.97 0.87 0.73 0.74 0.72 0.57 0.46 0.38 0.36 0.40 0.43 0.52 0.67 0.87 1.09 1.34 1.67 2.11 2.53
0.22 0.20 0.18 0.23 0.39 0.51 0.62 0.65 0.67 0.83 1.08 1.23 1.32 1.13 0.88 0.77 0.91 1.09 1.20 1.18 1.02 0.95 0.98 1.02 0.78 0.62 0.56 0.52 0.49 0.45 0.46 0.53 0.67 0.84 1.05 1.28 1.60 2.03
0.21 0.22 0.21 0.20 0.40 0.57 0.56 0.51 0.47 0.56 0.72 0.97 1.15 1.18 1.12 1.10 1.17 1.37 1.47 1.52 1.41 1.18 1.13 1.19 1.03 0.81 0.75 0.74 0.67 0.55 0.47 0.47 0.54 0.68 0.83 1.01 1.22 1.61
0.20 0.21 0.30 0.35 0.46 0.51 0.46 0.47 0.52 0.49 0.47 0.55 0.62 0.72 0.76 0.79 0.99 1.22 1.35 1.48 1.50 1.51 1.30 1.24 1.28 1.20 1.22 0.98 0.78 0.57 0.47 0.48 0.53 0.58 0.66 0.77 0.95 1.16
0.25 0.24 0.26 0.38 0.42 0.43 0.45 0.46 0.58 0.52 0.42 0.48 0.52 0.54 0.59 0.64 0.72 0.92 1.17 1.35 1.49 1.51 1.33 1.36 1.55 1.39 1.34 1.19 0.94 0.72 0.50 0.44 0.46 0.57 0.64 0.71 0.82 0.90
0.31 0.22 0.23 0.33 0.36 0.41 0.41 0.46 0.49 0.48 0.45 0.45 0.44 0.42 0.48 0.58 0.66 0.77 0.94 1.09 1.20 1.29 1.22 1.33 1.66 1.52 1.37 1.15 0.98 0.90 0.70 0.54 0.46 0.48 0.53 0.75 0.86 0.91
0.46 0.44 0.37 0.39 0.37 0.30 0.31 0.38 0.39 0.37 0.44 0.45 0.39 0.34 0.39 0.51 0.58 0.67 0.75 0.86 0.97 1.06 1.14 1.21 1.44 1.55 1.49 1.26 0.94 0.86 0.86 0.79 0.60 0.52 0.53 0.57 0.65 0.74
0.51 0.47 0.42 0.38 0.32 0.26 0.25 0.25 0.24 0.30 0.39 0.42 0.37 0.33 0.34 0.42 0.52 0.63 0.77 0.83 0.93 0.97 1.09 1.21 1.37 1.63 1.61 1.21 1.01 0.89 0.79 0.88 0.77 0.57 0.54 0.57 0.58 0.55
0.53 0.50 0.41 0.34 0.31 0.26 0.21 0.18 0.18 0.24 0.31 0.33 0.35 0.37 0.38 0.41 0.48 0.58 0.78 0.90 0.99 0.95 1.08 1.30 1.42 1.57 1.64 1.51 1.31 0.99 0.79 0.72 0.71 0.61 0.58 0.66 0.71 0.65
0.56 0.51 0.36 0.28 0.26 0.24 0.24 0.21 0.20 0.21 0.24 0.29 0.34 0.36 0.40 0.45 0.50 0.56 0.72 0.89 0.96 0.92 1.00 1.24 1.46 1.69 1.82 1.79 1.54 1.15 0.91 0.77 0.76 0.71 0.62 0.66 0.79 0.81
0.39 0.32 0.24 0.23 0.23 0.23 0.22 0.22 0.19 0.17 0.21 0.29 0.34 0.36 0.41 0.47 0.53 0.59 0.67 0.79 0.87 0.90 0.97 1.12 1.41 1.68 1.79 1.76 1.80 1.47 1.14 0.95 0.91 0.91 0.79 0.65 0.66 0.75
0.25 0.25 0.23 0.21 0.21 0.23 0.23 0.22 0.21 0.21 0.23 0.27 0.30 0.33 0.40 0.49 0.53 0.56 0.62 0.74 0.83 0.89 0.95 1.04 1.30 1.56 1.67 1.54 1.58 1.65 1.58 1.26 1.05 1.04 0.94 0.79 0.74 0.87
0.21 0.22 0.22 0.22 0.23 0.23 0.23 0.23 0.25 0.26 0.25 0.27 0.29 0.30 0.35 0.44 0.48 0.47 0.53 0.64 0.77 0.85 0.89 0.92 1.10 1.36 1.56 1.52 1.43 1.43 1.64 1.68 1.32 1.10 1.00 0.99 0.97 1.00
0.22 0.23 0.22 0.23 0.25 0.26 0.27 0.27 0.27 0.25 0.24 0.25 0.25 0.25 0.28 0.36 0.41 0.41 0.47 0.56 0.64 0.71 0.78 0.84 0.98 1.31 1.61 1.64 1.47 1.37 1.54 1.75 1.78 1.46 1.16 1.03 1.07 1.10
0.29 0.29 0.26 0.24 0.23 0.24 0.27 0.27 0.27 0.24 0.21 0.22 0.23 0.23 0.25 0.29 0.30 0.35 0.40 0.48 0.56 0.63 0.72 0.85 0.97 1.22 1.50 1.61 1.56 1.43 1.42 1.53 1.64 1.59 1.52 1.23 0.84 0.66

GEFSNE_prec_meanprecacc_174.txt.gz
Total_Precipitation_Accumulation
0.28 0.28 0.29 0.26 0.25 0.26 0.30 0.40 0.57 0.41 0.12 0.04 0.05 0.07 0.09 0.13 0.18 0.18 0.17 0.21 0.28 0.35 0.39 0.42 0.47 0.58 0.90 1.57 2.54 3.22 3.11 2.47 1.78 1.43 1.49 1.79 2.26 2.71
0.33 0.34 0.34 0.33 0.32 0.32 0.34 0.36 0.44 0.53 0.33 0.07 0.07 0.08 0.10 0.13 0.18 0.19 0.19 0.22 0.24 0.29 0.34 0.37 0.42 0.52 0.68 0.99 1.58 2.51 3.12 3.07 2.48 1.92 1.74 1.88 2.13 2.60
0.34 0.38 0.39 0.37 0.37 0.35 0.37 0.38 0.37 0.45 0.45 0.14 0.06 0.08 0.14 0.17 0.19 0.19 0.21 0.19 0.17 0.21 0.28 0.36 0.41 0.49 0.62 0.80 1.08 1.68 2.55 3.07 3.07 2.60 2.22 2.07 2.06 2.23
0.49 0.48 0.48 0.48 0.50 0.48 0.49 0.46 0.42 0.40 0.47 0.32 0.11 0.08 0.15 0.23 0.29 0.27 0.23 0.20 0.17 0.19 0.24 0.31 0.39 0.46 0.57 0.71 0.88 1.17 1.76 2.50 2.98 2.96 2.57 2.23 2.09 2.17
0.77 0.76 0.72 0.69 0.71 0.69 0.68 0.60 0.50 0.41 0.41 0.40 0.23 0.14 0.17 0.26 0.36 0.37 0.32 0.25 0.19 0.21 0.24 0.29 0.35 0.40 0.48 0.59 0.72 0.89 1.16 1.59 2.21 2.77 2.95 2.67 2.32 2.18
0.90 0.91 0.96 0.98 0.99 0.95 0.93 0.78 0.62 0.54 0.48 0.48 0.38 0.26 0.22 0.29 0.46 0.51 0.47 0.37 0.27 0.23 0.26 0.28 0.33 0.38 0.40 0.43 0.48 0.62 0.88 1.27 1.72 2.30 2.84 2.98 2.65 2.36
0.67 0.69 0.79 0.96 1.09 1.16 1.19 1.05 0.91 0.85 0.75 0.69 0.58 0.46 0.38 0.42 0.56 0.61 0.66 0.59 0.49 0.38 0.30 0.25 0.26 0.27 0.28 0.33 0.41 0.52 0.71 0.95 1.27 1.72 2.30 2.82 2.87 2.66
0.50 0.48 0.51 0.66 0.79 0.90 1.06 1.12 1.18 1.24 1.18 1.03 0.86 0.71 0.53 0.49 0.57 0.74 0.81 0.88 0.81 0.56 0.47 0.39 0.33 0.31 0.28 0.27 0.32 0.42 0.59 0.81 1.07 1.36 1.74 2.23 2.66 2.78
0.35 0.34 0.32 0.39 0.53 0.55 0.68 0.82 0.98 1.17 1.29 1.26 1.19 0.92 0.67 0.56 0.67 0.84 0.91 0.97 0.88 0.73 0.74 0.72 0.57 0.46 0.38 0.36 0.40 0.43 0.52 0.67 0.87 1.09 1.34 1.68 2.12 2.54
0.33 0.28 0.23 0.25 0.40 0.52 0.63 0.65 0.67 0.83 1.09 1.24 1.32 1.14 0.88 0.78 0.91 1.10 1.21 1.18 1.02 0.95 0.98 1.02 0.78 0.62 0.56 0.52 0.49 0.45 0.46 0.53 0.67 0.85 1.05 1.29 1.60 2.04
0.34 0.30 0.26 0.22 0.42 0.59 0.57 0.51 0.48 0.57 0.73 0.98 1.16 1.18 1.12 1.11 1.17 1.37 1.48 1.53 1.41 1.18 1.13 1.19 1.03 0.81 0.75 0.75 0.67 0.55 0.47 0.47 0.54 0.68 0.84 1.01 1.23 1.62
0.32 0.30 0.38 0.39 0.49 0.53 0.47 0.48 0.53 0.50 0.48 0.55 0.63 0.73 0.77 0.80 1.01 1.22 1.36 1.49 1.50 1.51 1.30 1.24 1.28 1.20 1.22 0.98 0.78 0.57 0.47 0.48 0.53 0.58 0.66 0.77 0.96 1.17
0.34 0.32 0.32 0.45 0.47 0.47 0.48 0.48 0.60 0.54 0.43 0.49 0.53 0.55 0.60 0.66 0.73 0.93 1.17 1.35 1.50 1.52 1.33 1.36 1.55 1.39 1.35 1.19 0.94 0.72 0.50 0.44 0.46 0.57 0.64 0.72 0.82 0.90
0.38 0.28 0.29 0.39 0.42 0.47 0.47 0.51 0.54 0.51 0.47 0.47 0.46 0.44 0.50 0.59 0.68 0.78 0.95 1.10 1.21 1.29 1.23 1.34 1.67 1.53 1.38 1.16 0.99 0.90 0.70 0.54 0.46 0.48 0.53 0.75 0.87 0.91
0.54 0.52 0.45 0.46 0.43 0.36 0.37 0.44 0.44 0.40 0.46 0.47 0.41 0.37 0.41 0.52 0.60 0.69 0.77 0.88 0.99 1.07 1.16 1.23 1.45 1.56 1.50 1.27 0.95 0.86 0.87 0.79 0.60 0.52 0.53 0.58 0.65 0.74
0.60 0.56 0.51 0.48 0.40 0.33 0.32 0.30 0.29 0.33 0.43 0.45 0.40 0.36 0.37 0.45 0.55 0.66 0.79 0.85 0.95 0.99 1.10 1.22 1.38 1.63 1.62 1.22 1.01 0.89 0.79 0.88 0.77 0.57 0.54 0.57 0.59 0.56
0.60 0.57 0.48 0.40 0.37 0.31 0.26 0.22 0.23 0.29 0.37 0.37 0.39 0.41 0.41 0.44 0.50 0.60 0.80 0.92 1.00 0.96 1.09 1.31 1.42 1.58 1.64 1.51 1.32 1.00 0.79 0.72 0.71 0.62 0.59 0.66 0.72 0.66
0.63 0.57 0.41 0.32 0.29 0.28 0.27 0.24 0.24 0.26 0.29 0.35 0.39 0.40 0.43 0.47 0.52 0.58 0.74 0.91 0.97 0.93 1.02 1.25 1.48 1.70 1.83 1.80 1.55 1.16 0.91 0.78 0.76 0.71 0.62 0.67 0.79 0.82
0.48 0.38 0.28 0.27 0.28 0.27 0.26 0.25 0.23 0.21 0.25 0.33 0.38 0.39 0.44 0.51 0.56 0.61 0.69 0.81 0.89 0.91 0.98 1.13 1.42 1.70 1.81 1.78 1.81 1.47 1.15 0.95 0.91 0.92 0.79 0.66 0.68 0.76
0.32 0.31 0.28 0.25 0.26 0.27 0.26 0.26 0.25 0.24 0.27 0.30 0.33 0.36 0.43 0.51 0.55 0.58 0.64 0.76 0.85 0.91 0.97 1.06 1.32 1.59 1.70 1.57 1.60 1.66 1.59 1.28 1.07 1.05 0.95 0.81 0.75 0.88
0.28 0.27 0.27 0.27 0.28 0.28 0.27 0.27 0.29 0.30 0.29 0.31 0.32 0.33 0.37 0.46 0.50 0.49 0.55 0.66 0.79 0.87 0.91 0.94 1.12 1.38 1.58 1.54 1.45 1.44 1.65 1.69 1.33 1.12 1.02 1.01 0.99 1.02
0.29 0.31 0.29 0.29 0.30 0.31 0.31 0.31 0.31 0.29 0.28 0.29 0.28 0.28 0.31 0.38 0.43 0.43 0.49 0.57 0.65 0.73 0.80 0.86 1.00 1.33 1.62 1.65 1.48 1.38 1.55 1.76 1.79 1.47 1.18 1.05 1.11 1.15
0.37 0.38 0.35 0.31 0.29 0.29 0.32 0.32 0.31 0.27 0.24 0.24 0.25 0.25 0.27 0.31 0.33 0.37 0.42 0.49 0.56 0.63 0.73 0.86 0.98 1.22 1.51 1.62 1.57 1.44 1.43 1.54 1.65 1.60 1.54 1.24 0.85 0.67

GEFSNE_prec_meanprecacc_180.txt.gz
Total_Precipitation_Accumulation
0.41 0.38 0.38 0.34 0.33 0.35 0.36 0.45 0.61 0.43 0.12 0.04 0.05 0.07 0.10 0.14 0.19 0.19 0.18 0.21 0.28 0.35 0.39 0.42 0.48 0.58 0.90 1.57 2.54 3.23 3.11 2.47 1.78 1.43 1.49 1.80 2.27 2.72
0.47 0.46 0.45 0.42 0.40 0.40 0.41 0.40 0.47 0.55 0.34 0.07 0.07 0.08 0.11 0.14 0.19 0.20 0.20 0.23 0.24 0.29 0.34 0.37 0.42 0.52 0.68 0.99 1.58 2.51 3.12 3.07 2.48 1.92 1.74 1.89 2.14 2.61
0.50 0.52 0.51 0.47 0.46 0.42 0.42 0.41 0.40 0.46 0.46 0.14 0.07 0.10 0.15 0.19 0.20 0.20 0.21 0.19 0.18 0.22 0.28 0.36 0.41 0.49 0.62 0.80 1.08 1.68 2.56 3.08 3.07 2.60 2.22 2.07 2.07 2.24
0.65 0.61 0.60 0.59 0.60 0.56 0.54 0.48 0.43 0.42 0.48 0.34 0.13 0.10 0.17 0.25 0.30 0.28 0.23 0.20 0.17 0.19 0.24 0.31 0.39 0.46 0.57 0.71 0.88 1.17 1.76 2.50 2.99 2.96 2.58 2.24 2.09 2.18
0.92 0.89 0.84 0.79 0.81 0.76 0.72 0.63 0.51 0.43 0.43 0.43 0.26 0.16 0.19 0.27 0.37 0.37 0.32 0.25 0.20 0.21 0.25 0.29 0.35 0.40 0.48 0.59 0.73 0.90 1.17 1.59 2.22 2.77 2.95 2.68 2.33 2.19
1.05 1.04 1.08 1.08 1.07 1.01 0.96 0.80 0.64 0.56 0.50 0.50 0.40 0.27 0.24 0.30 0.47 0.52 0.47 0.37 0.28 0.23 0.27 0.28 0.33 0.39 0.40 0.43 0.48 0.62 0.89 1.28 1.72 2.30 2.85 2.98 2.66 2.37
0.84 0.84 0.92 1.07 1.17 1.22 1.23 1.07 0.93 0.88 0.77 0.71 0.60 0.48 0.39 0.43 0.57 0.62 0.66 0.59 0.49 0.38 0.31 0.25 0.26 0.27 0.28 0.33 0.42 0.52 0.71 0.95 1.27 1.73 2.31 2.83 2.88 2.67
0.68 0.65 0.67 0.80 0.89 0.97 1.10 1.15 1.20 1.27 1.20 1.04 0.87 0.72 0.54 0.50 0.57 0.74 0.82 0.88 0.81 0.56 0.47 0.39 0.33 0.31 0.28 0.27 0.32 0.42 0.59 0.82 1.07 1.37 1.74 2.24 2.66 2.79
0.52 0.51 0.49 0.54 0.65 0.63 0.73 0.86 1.01 1.19 1.32 1.28 1.20 0.93 0.68 0.57 0.67 0.84 0.91 0.98 0.88 0.73 0.75 0.72 0.58 0.46 0.38 0.36 0.40 0.43 0.52 0.68 0.87 1.09 1.34 1.68 2.12 2.55
0.52 0.46 0.40 0.41 0.53 0.60 0.67 0.68 0.69 0.85 1.11 1.26 1.34 1.15 0.89 0.78 0.91 1.10 1.21 1.19 1.03 0.95 0.99 1.02 0.78 0.63 0.56 0.52 0.49 0.45 0.46 0.53 0.67 0.85 1.06 1.29 1.61 2.04
0.56 0.51 0.44 0.37 0.55 0.66 0.60 0.54 0.50 0.59 0.75 1.00 1.17 1.19 1.13 1.11 1.18 1.37 1.48 1.53 1.42 1.18 1.14 1.19 1.03 0.81 0.75 0.75 0.67 0.56 0.47 0.47 0.54 0.68 0.84 1.02 1.23 1.62
0.54 0.51 0.58 0.56 0.63 0.62 0.51 0.51 0.56 0.53 0.51 0.57 0.64 0.73 0.77 0.80 1.01 1.23 1.36 1.50 1.51 1.52 1.31 1.24 1.28 1.20 1.22 0.98 0.78 0.57 0.48 0.49 0.53 0.58 0.67 0.78 0.97 1.17
0.55 0.50 0.49 0.61 0.60 0.56 0.53 0.52 0.63 0.56 0.45 0.50 0.54 0.55 0.61 0.66 0.74 0.94 1.18 1.36 1.51 1.52 1.34 1.36 1.56 1.39 1.35 1.20 0.95 0.73 0.51 0.44 0.46 0.57 0.65 0.72 0.82 0.91
0.55 0.45 0.45 0.55 0.55 0.56 0.53 0.56 0.58 0.54 0.49 0.49 0.47 0.45 0.51 0.60 0.69 0.79 0.96 1.10 1.22 1.30 1.23 1.34 1.68 1.54 1.39 1.17 1.00 0.91 0.70 0.54 0.46 0.48 0.54 0.76 0.87 0.92
0.68 0.68 0.62 0.61 0.56 0.46 0.45 0.51 0.49 0.44 0.49 0.50 0.43 0.38 0.42 0.54 0.61 0.70 0.78 0.89 0.99 1.08 1.16 1.23 1.46 1.57 1.52 1.28 0.96 0.87 0.87 0.79 0.60 0.53 0.54 0.59 0.66 0.74
0.75 0.72 0.68 0.63 0.53 0.45 0.43 0.39 0.36 0.39 0.47 0.48 0.43 0.38 0.39 0.47 0.57 0.68 0.81 0.87 0.96 1.00 1.11 1.22 1.39 1.65 1.64 1.23 1.02 0.90 0.80 0.89 0.77 0.58 0.55 0.58 0.60 0.57
0.76 0.72 0.64 0.54 0.48 0.40 0.34 0.28 0.29 0.35 0.42 0.41 0.42 0.44 0.44 0.47 0.53 0.62 0.81 0.93 1.01 0.97 1.10 1.32 1.43 1.58 1.65 1.52 1.33 1.00 0.80 0.73 0.72 0.62 0.59 0.67 0.72 0.67
0.77 0.69 0.52 0.42 0.38 0.35 0.33 0.30 0.28 0.30 0.33 0.38 0.42 0.43 0.46 0.50 0.54 0.60 0.75 0.92 0.98 0.94 1.03 1.26 1.49 1.71 1.84 1.80 1.56 1.17 0.92 0.79 0.77 0.71 0.63 0.68 0.80 0.83
0.60 0.49 0.37 0.34 0.34 0.32 0.30 0.29 0.27 0.24 0.28 0.36 0.40 0.42 0.47 0.54 0.59 0.64 0.72 0.84 0.91 0.93 1.00 1.14 1.43 1.71 1.81 1.79 1.82 1.49 1.17 0.97 0.92 0.92 0.80 0.67 0.69 0.77
0.44 0.41 0.36 0.31 0.31 0.32 0.30 0.29 0.27 0.27 0.29 0.32 0.35 0.39 0.46 0.54 0.58 0.60 0.67 0.79 0.87 0.93 0.98 1.07 1.33 1.60 1.71 1.58 1.62 1.68 1.61 1.29 1.08 1.06 0.96 0.82 0.76 0.89
0.39 0.36 0.34 0.34 0.34 0.33 0.32 0.31 0.32 0.32 0.31 0.33 0.34 0.35 0.40 0.49 0.52 0.51 0.57 0.68 0.81 0.89 0.92 0.95 1.14 1.40 1.59 1.55 1.46 1.46 1.66 1.70 1.35 1.13 1.03 1.02 1.00 1.03
0.38 0.38 0.36 0.36 0.37 0.37 0.37 0.36 0.34 0.32 0.31 0.32 0.32 0.31 0.34 0.41 0.46 0.46 0.51 0.59 0.67 0.74 0.81 0.87 1.01 1.34 1.63 1.66 1.49 1.39 1.56 1.77 1.79 1.48 1.19 1.07 1.13 1.19
0.44 0.45 0.42 0.39 0.37 0.36 0.37 0.36 0.35 0.31 0.28 0.28 0.30 0.29 0.31 0.35 0.36 0.40 0.44 0.51 0.58 0.65 0.75 0.87 0.99 1.23 1.52 1.63 1.58 1.45 1.44 1.55 1.66 1.61 1.55 1.26 0.86 0.68

GEFSNE_prec_meanprecacc_186.txt.gz
Total_Precipitation_Accumulation
0.54 0.52 0.52 0.46 0.43 0.43 0.44 0.54 0.68 0.50 0.17 0.08 0.08 0.09 0.11 0.14 0.19 0.19 0.18 0.22 0.29 0.36 0.40 0.44 0.49 0.59 0.91 1.58 2.55 3.23 3.12 2.47 1.78 1.43 1.49 1.81 2.28 2.74
0.61 0.59 0.58 0.55 0.52 0.50 0.50 0.49 0.55 0.61 0.39 0.10 0.09 0.10 0.12 0.14 0.20 0.21 0.21 0.24 0.26 0.31 0.36 0.39 0.43 0.53 0.69 0.99 1.59 2.51 3.12 3.07 2.48 1.92 1.75 1.89 2.15 2.63
0.65 0.66 0.64 0.60 0.58 0.52 0.52 0.50 0.48 0.53 0.51 0.17 0.09 0.11 0.17 0.20 0.21 0.21 0.22 0.21 0.19 0.23 0.30 0.37 0.42 0.50 0.63 0.81 1.08 1.68 2.56 3.08 3.07 2.60 2.22 2.08 2.08 2.26
0.80 0.76 0.74 0.72 0.72 0.65 0.63 0.58 0.51 0.48 0.52 0.37 0.15 0.12 0.19 0.26 0.32 0.30 0.25 0.22 0.18 0.20 0.25 0.32 0.39 0.46 0.57 0.71 0.88 1.17 1.76 2.51 2.99 2.96 2.58 2.24 2.10 2.19
1.07 1.03 0.97 0.94 0.93 0.87 0.82 0.72 0.60 0.50 0.48 0.46 0.29 0.19 0.21 0.29 0.38 0.39 0.34 0.26 0.21 0.22 0.26 0.30 0.35 0.40 0.48 0.59 0.73 0.90 1.17 1.59 2.22 2.77 2.96 2.68 2.33 2.20
1.21 1.18 1.19 1.20 1.18 1.12 1.07 0.89 0.72 0.64 0.57 0.56 0.44 0.31 0.27 0.32 0.50 0.54 0.49 0.39 0.29 0.24 0.28 0.29 0.34 0.39 0.40 0.43 0.48 0.63 0.89 1.28 1.72 2.30 2.85 2.99 2.66 2.37
1.02 1.00 1.04 1.18 1.29 1.33 1.34 1.17 1.01 0.95 0.84 0.77 0.64 0.51 0.41 0.45 0.59 0.64 0.68 0.61 0.51 0.39 0.31 0.26 0.26 0.27 0.29 0.34 0.42 0.53 0.71 0.96 1.27 1.73 2.32 2.83 2.88 2.68
0.85 0.81 0.81 0.93 1.02 1.10 1.22 1.25 1.29 1.33 1.25 1.08 0.91 0.75 0.56 0.51 0.59 0.76 0.83 0.90 0.82 0.57 0.48 0.39 0.33 0.31 0.28 0.27 0.33 0.42 0.60 0.82 1.08 1.37 1.75 2.24 2.67 2.80
0.67 0.66 0.65 0.68 0.80 0.77 0.87 0.99 1.11 1.26 1.36 1.31 1.23 0.95 0.70 0.59 0.69 0.87 0.93 0.99 0.89 0.74 0.75 0.73 0.58 0.47 0.38 0.37 0.41 0.43 0.52 0.68 0.87 1.10 1.35 1.69 2.13 2.55
0.65 0.59 0.54 0.55 0.68 0.75 0.82 0.82 0.80 0.93 1.16 1.29 1.37 1.17 0.91 0.81 0.94 1.12 1.22 1.20 1.03 0.96 0.99 1.02 0.78 0.63 0.57 0.52 0.50 0.45 0.46 0.53 0.68 0.86 1.07 1.30 1.61 2.05
0.72 0.65 0.59 0.51 0.70 0.82 0.76 0.67 0.60 0.67 0.81 1.05 1.21 1.22 1.16 1.14 1.20 1.39 1.49 1.54 1.42 1.18 1.14 1.19 1.03 0.82 0.75 0.75 0.67 0.56 0.47 0.48 0.55 0.69 0.85 1.02 1.24 1.63
0.75 0.69 0.74 0.70 0.78 0.78 0.66 0.64 0.66 0.60 0.58 0.63 0.69 0.77 0.80 0.83 1.03 1.24 1.37 1.50 1.52 1.53 1.31 1.25 1.28 1.21 1.23 0.98 0.79 0.57 0.48 0.49 0.53 0.59 0.67 0.79 0.98 1.18
0.75 0.70 0.68 0.79 0.76 0.72 0.68 0.64 0.73 0.64 0.52 0.55 0.58 0.58 0.63 0.68 0.75 0.95 1.19 1.36 1.51 1.53 1.34 1.37 1.56 1.40 1.36 1.20 0.96 0.73 0.51 0.44 0.46 0.57 0.65 0.73 0.83 0.92
0.70 0.60 0.61 0.73 0.73 0.72 0.67 0.69 0.70 0.65 0.57 0.55 0.51 0.47 0.52 0.61 0.70 0.80 0.96 1.11 1.23 1.31 1.24 1.35 1.68 1.54 1.39 1.18 1.00 0.92 0.71 0.54 0.46 0.48 0.54 0.76 0.87 0.92
0.83 0.84 0.79 0.80 0.76 0.65 0.61 0.64 0.60 0.53 0.58 0.56 0.47 0.40 0.44 0.55 0.62 0.71 0.80 0.90 1.01 1.09 1.17 1.24 1.46 1.58 1.53 1.29 0.97 0.88 0.88 0.80 0.60 0.53 0.54 0.59 0.66 0.75
0.93 0.90 0.88 0.85 0.75 0.65 0.60 0.52 0.45 0.47 0.54 0.54 0.47 0.41 0.41 0.49 0.58 0.69 0.82 0.88 0.98 1.01 1.12 1.23 1.40 1.65 1.64 1.24 1.03 0.91 0.81 0.90 0.78 0.58 0.55 0.58 0.60 0.57
0.95 0.93 0.87 0.79 0.72 0.61 0.51 0.42 0.40 0.44 0.50 0.47 0.48 0.48 0.47 0.49 0.55 0.64 0.83 0.94 1.03 0.98 1.11 1.33 1.44 1.59 1.66 1.53 1.33 1.01 0.81 0.74 0.73 0.63 0.59 0.67 0.73 0.67
0.96 0.87 0.71 0.61 0.55 0.50 0.47 0.41 0.39 0.39 0.40 0.44 0.47 0.47 0.49 0.52 0.56 0.62 0.77 0.94 1.00 0.96 1.04 1.27 1.50 1.73 1.85 1.82 1.56 1.17 0.93 0.79 0.77 0.72 0.63 0.68 0.81 0.84
0.75 0.62 0.50 0.47 0.47 0.43 0.41 0.39 0.36 0.32 0.34 0.41 0.44 0.45 0.50 0.57 0.62 0.67 0.75 0.86 0.93 0.95 1.01 1.16 1.45 1.72 1.82 1.79 1.83 1.50 1.18 0.97 0.92 0.93 0.80 0.67 0.70 0.78
0.58 0.52 0.46 0.42 0.41 0.42 0.40 0.38 0.36 0.35 0.36 0.38 0.40 0.42 0.48 0.57 0.61 0.63 0.69 0.81 0.89 0.95 1.01 1.09 1.34 1.61 1.72 1.59 1.63 1.69 1.62 1.30 1.08 1.07 0.97 0.82 0.76 0.89
0.53 0.46 0.43 0.42 0.43 0.42 0.41 0.40 0.40 0.39 0.38 0.39 0.39 0.39 0.43 0.52 0.55 0.54 0.60 0.72 0.85 0.92 0.95 0.97 1.15 1.41 1.60 1.56 1.47 1.47 1.66 1.71 1.35 1.14 1.04 1.02 1.01 1.04
0.49 0.48 0.45 0.45 0.47 0.46 0.45 0.44 0.42 0.39 0.37 0.38 0.37 0.36 0.38 0.44 0.49 0.49 0.54 0.63 0.71 0.77 0.84 0.90 1.04 1.35 1.64 1.67 1.50 1.40 1.56 1.77 1.80 1.49 1.20 1.08 1.14 1.22
0.53 0.55 0.52 0.49 0.47 0.45 0.45 0.44 0.41 0.37 0.33 0.33 0.34 0.34 0.35 0.39 0.40 0.43 0.47 0.53 0.60 0.68 0.77 0.90 1.02 1.26 1.54 1.64 1.59 1.46 1.45 1.55 1.66 1.61 1.56 1.26 0.87 0.69

GEFSNE_prec_meanprecacc_192.txt.gz
Total_Precipitation_Accumulation
0.65 0.61 0.60 0.52 0.49 0.49 0.51 0.61 0.76 0.57 0.24 0.13 0.13 0.14 0.15 0.18 0.24 0.23 0.21 0.25 0.31 0.38 0.42 0.45 0.50 0.61 0.93 1.60 2.57 3.26 3.14 2.50 1.80 1.45 1.51 1.83 2.30 2.75
0.72 0.68 0.66 0.62 0.56 0.55 0.56 0.56 0.63 0.68 0.45 0.16 0.14 0.15 0.17 0.19 0.25 0.25 0.25 0.28 0.29 0.33 0.38 0.40 0.45 0.55 0.70 1.01 1.61 2.53 3.14 3.09 2.50 1.94 1.76 1.90 2.16 2.64
0.77 0.76 0.72 0.66 0.63 0.56 0.57 0.57 0.56 0.60 0.58 0.23 0.14 0.17 0.24 0.26 0.27 0.26 0.27 0.25 0.22 0.26 0.32 0.38 0.43 0.51 0.64 0.82 1.10 1.70 2.58 3.09 3.09 2.61 2.23 2.09 2.09 2.27
0.92 0.88 0.83 0.80 0.77 0.70 0.68 0.64 0.58 0.54 0.59 0.43 0.21 0.17 0.25 0.32 0.38 0.36 0.30 0.26 0.22 0.24 0.28 0.34 0.41 0.47 0.59 0.73 0.90 1.19 1.78 2.52 3.00 2.97 2.59 2.25 2.11 2.20
1.18 1.14 1.07 1.01 1.00 0.92 0.87 0.78 0.66 0.56 0.54 0.53 0.35 0.23 0.26 0.35 0.46 0.47 0.41 0.33 0.25 0.25 0.28 0.32 0.37 0.42 0.49 0.60 0.74 0.91 1.18 1.60 2.22 2.78 2.96 2.69 2.34 2.21
1.33 1.29 1.29 1.27 1.24 1.18 1.13 0.95 0.78 0.70 0.64 0.63 0.51 0.37 0.32 0.38 0.57 0.62 0.57 0.47 0.34 0.27 0.30 0.31 0.35 0.41 0.42 0.44 0.49 0.64 0.90 1.29 1.73 2.31 2.86 2.99 2.67 2.38
1.17 1.12 1.14 1.27 1.36 1.40 1.40 1.23 1.08 1.03 0.93 0.86 0.73 0.59 0.49 0.52 0.67 0.71 0.74 0.66 0.56 0.43 0.34 0.27 0.28 0.29 0.30 0.35 0.43 0.54 0.72 0.97 1.28 1.74 2.32 2.84 2.89 2.68
1.04 0.96 0.93 1.04 1.12 1.19 1.31 1.33 1.35 1.41 1.33 1.17 1.00 0.83 0.64 0.58 0.65 0.82 0.89 0.95 0.88 0.61 0.52 0.42 0.36 0.33 0.29 0.28 0.33 0.43 0.61 0.83 1.09 1.38 1.76 2.25 2.68 2.81
0.85 0.82 0.79 0.81 0.91 0.87 0.97 1.09 1.19 1.34 1.44 1.39 1.31 1.03 0.77 0.65 0.75 0.92 0.98 1.03 0.93 0.77 0.79 0.76 0.60 0.49 0.40 0.38 0.42 0.44 0.53 0.69 0.89 1.11 1.36 1.70 2.14 2.57
0.84 0.74 0.69 0.68 0.80 0.87 0.92 0.92 0.90 1.03 1.25 1.38 1.45 1.25 0.99 0.88 1.01 1.18 1.27 1.24 1.07 1.00 1.02 1.06 0.82 0.65 0.58 0.53 0.51 0.47 0.48 0.55 0.69 0.87 1.08 1.31 1.63 2.06
0.92 0.82 0.74 0.65 0.86 0.95 0.87 0.79 0.72 0.78 0.93 1.17 1.33 1.33 1.26 1.24 1.30 1.48 1.57 1.60 1.47 1.22 1.17 1.21 1.05 0.83 0.77 0.77 0.70 0.58 0.49 0.49 0.57 0.70 0.86 1.03 1.25 1.63
0.96 0.89 0.93 0.87 0.95 0.92 0.78 0.77 0.79 0.71 0.68 0.76 0.84 0.91 0.91 0.93 1.12 1.31 1.42 1.54 1.55 1.56 1.34 1.26 1.30 1.22 1.25 1.01 0.81 0.59 0.50 0.51 0.55 0.60 0.68 0.79 0.99 1.18
0.94 0.88 0.87 0.98 0.93 0.86 0.80 0.76 0.86 0.75 0.63 0.68 0.71 0.72 0.75 0.79 0.84 1.01 1.23 1.39 1.54 1.55 1.36 1.39 1.58 1.42 1.38 1.23 0.97 0.75 0.53 0.45 0.47 0.58 0.66 0.73 0.84 0.92
0.88 0.76 0.77 0.91 0.90 0.88 0.82 0.84 0.86 0.81 0.73 0.70 0.64 0.60 0.64 0.71 0.77 0.86 1.01 1.15 1.26 1.33 1.26 1.37 1.71 1.57 1.42 1.20 1.03 0.93 0.72 0.56 0.47 0.49 0.54 0.77 0.88 0.93
0.99 1.00 0.96 0.97 0.93 0.81 0.78 0.81 0.78 0.72 0.76 0.72 0.58 0.50 0.52 0.62 0.68 0.77 0.85 0.94 1.04 1.12 1.19 1.26 1.49 1.61 1.56 1.32 0.99 0.90 0.90 0.81 0.61 0.54 0.54 0.59 0.66 0.75
1.11 1.09 1.07 1.04 0.95 0.85 0.81 0.72 0.64 0.64 0.69 0.66 0.56 0.50 0.49 0.56 0.66 0.75 0.87 0.92 1.02 1.05 1.14 1.25 1.42 1.68 1.68 1.27 1.05 0.93 0.82 0.91 0.78 0.58 0.56 0.59 0.60 0.58
1.14 1.14 1.08 0.99 0.94 0.84 0.74 0.64 0.59 0.62 0.64 0.59 0.57 0.58 0.57 0.58 0.62 0.69 0.87 0.98 1.06 1.01 1.13 1.35 1.47 1.62 1.68 1.55 1.35 1.02 0.81 0.74 0.73 0.63 0.60 0.68 0.73 0.68
1.14 1.07 0.89 0.79 0.73 0.68 0.65 0.60 0.57 0.56 0.54 0.55 0.58 0.58 0.59 0.61 0.64 0.68 0.82 0.98 1.02 0.98 1.07 1.29 1.52 1.75 1.87 1.83 1.58 1.18 0.93 0.79 0.77 0.72 0.63 0.69 0.82 0.84
0.92 0.78 0.64 0.62 0.61 0.56 0.54 0.53 0.50 0.47 0.48 0.53 0.56 0.57 0.61 0.66 0.70 0.73 0.81 0.90 0.96 0.98 1.04 1.18 1.47 1.74 1.84 1.81 1.84 1.50 1.18 0.97 0.93 0.93 0.81 0.68 0.72 0.79
0.71 0.65 0.58 0.53 0.53 0.53 0.50 0.49 0.47 0.47 0.49 0.51 0.52 0.53 0.58 0.66 0.69 0.70 0.76 0.86 0.93 0.98 1.03 1.12 1.37 1.63 1.73 1.60 1.64 1.70 1.62 1.30 1.09 1.07 0.97 0.82 0.77 0.90
0.66 0.60 0.55 0.53 0.53 0.53 0.51 0.50 0.49 0.49 0.48 0.50 0.51 0.50 0.53 0.61 0.63 0.61 0.67 0.79 0.90 0.96 0.98 1.00 1.17 1.43 1.62 1.57 1.48 1.48 1.67 1.72 1.36 1.15 1.04 1.03 1.01 1.04
0.63 0.62 0.57 0.55 0.56 0.56 0.56 0.55 0.53 0.49 0.46 0.47 0.47 0.47 0.48 0.55 0.58 0.57 0.61 0.68 0.75 0.81 0.87 0.92 1.06 1.39 1.66 1.68 1.51 1.41 1.58 1.78 1.81 1.50 1.20 1.09 1.16 1.24
0.65 0.67 0.63 0.59 0.55 0.53 0.54 0.53 0.51 0.46 0.41 0.41 0.43 0.43 0.44 0.48 0.49 0.51 0.54 0.59 0.64 0.71 0.80 0.93 1.05 1.28 1.56 1.66 1.60 1.47 1.46 1.57 1.67 1.62 1.56 1.27 0.87 0.70

GEFSNE_prec_meanprecacc_198.txt.gz
Total_Precipitation_Accumulation
0.72 0.68 0.67 0.59 0.57 0.57 0.59 0.70 0.86 0.67 0.32 0.20 0.20 0.21 0.21 0.24 0.29 0.29 0.27 0.32 0.38 0.45 0.48 0.51 0.56 0.67 0.98 1.66 2.62 3.30 3.18 2.52 1.82 1.47 1.53 1.84 2.32 2.79
0.80 0.76 0.72 0.69 0.64 0.61 0.61 0.62 0.69 0.75 0.52 0.21 0.19 0.21 0.25 0.26 0.32 0.31 0.30 0.36 0.38 0.42 0.45 0.46 0.50 0.60 0.76 1.06 1.65 2.57 3.18 3.12 2.52 1.96 1.78 1.92 2.18 2.66
0.84 0.84 0.79 0.73 0.71 0.64 0.63 0.62 0.60 0.65 0.64 0.28 0.18 0.22 0.30 0.34 0.35 0.34 0.35 0.34 0.32 0.35 0.40 0.46 0.49 0.56 0.69 0.88 1.15 1.74 2.61 3.13 3.12 2.64 2.25 2.10 2.11 2.29
0.98 0.96 0.91 0.87 0.86 0.78 0.75 0.69 0.62 0.58 0.65 0.49 0.25 0.23 0.31 0.40 0.45 0.44 0.39 0.36 0.32 0.37 0.39 0.43 0.48 0.53 0.63 0.78 0.96 1.25 1.82 2.55 3.03 2.99 2.61 2.27 2.13 2.22
1.26 1.23 1.15 1.09 1.08 1.00 0.94 0.83 0.70 0.60 0.59 0.58 0.41 0.30 0.34 0.43 0.55 0.56 0.51 0.46 0.38 0.39 0.41 0.42 0.46 0.48 0.54 0.64 0.79 0.97 1.24 1.65 2.26 2.81 2.98 2.71 2.36 2.24
1.44 1.40 1.41 1.38 1.33 1.26 1.21 1.02 0.84 0.76 0.69 0.68 0.56 0.43 0.41 0.47 0.68 0.75 0.70 0.61 0.51 0.40 0.42 0.42 0.45 0.48 0.47 0.49 0.55 0.70 0.97 1.36 1.77 2.34 2.88 3.01 2.69 2.40
1.28 1.23 1.28 1.40 1.47 1.49 1.49 1.32 1.16 1.12 1.01 0.93 0.80 0.65 0.56 0.61 0.77 0.84 0.88 0.80 0.72 0.58 0.46 0.37 0.37 0.36 0.36 0.40 0.49 0.60 0.78 1.03 1.34 1.78 2.35 2.86 2.92 2.71
1.14 1.07 1.06 1.16 1.22 1.29 1.40 1.41 1.44 1.51 1.44 1.26 1.07 0.90 0.70 0.64 0.73 0.95 1.03 1.09 1.03 0.75 0.63 0.52 0.43 0.40 0.36 0.33 0.40 0.49 0.66 0.88 1.14 1.42 1.79 2.28 2.71 2.84
0.98 0.96 0.94 0.93 1.02 0.96 1.07 1.19 1.30 1.46 1.55 1.50 1.41 1.10 0.85 0.75 0.87 1.05 1.11 1.14 1.03 0.88 0.89 0.87 0.69 0.57 0.48 0.45 0.48 0.49 0.58 0.75 0.94 1.16 1.40 1.73 2.17 2.59
1.00 0.89 0.83 0.83 0.94 0.99 1.05 1.05 1.03 1.14 1.36 1.49 1.56 1.35 1.09 1.01 1.17 1.35 1.42 1.38 1.19 1.09 1.11 1.16 0.92 0.75 0.68 0.62 0.59 0.53 0.53 0.60 0.74 0.91 1.12 1.33 1.64 2.07
1.08 0.98 0.89 0.80 1.01 1.11 1.02 0.94 0.86 0.91 1.05 1.29 1.45 1.45 1.39 1.38 1.49 1.68 1.75 1.75 1.60 1.33 1.26 1.31 1.15 0.93 0.87 0.86 0.77 0.64 0.53 0.53 0.60 0.74 0.89 1.05 1.26 1.65
1.09 1.04 1.10 1.03 1.10 1.06 0.92 0.91 0.93 0.83 0.80 0.88 0.96 1.03 1.05 1.07 1.27 1.47 1.57 1.68 1.67 1.66 1.43 1.35 1.38 1.30 1.35 1.11 0.88 0.65 0.54 0.54 0.58 0.63 0.71 0.82 1.00 1.19
1.11 1.04 1.02 1.14 1.08 1.01 0.95 0.89 0.98 0.86 0.73 0.78 0.82 0.83 0.87 0.92 0.98 1.15 1.36 1.50 1.64 1.64 1.43 1.44 1.65 1.49 1.46 1.31 1.04 0.79 0.56 0.48 0.50 0.61 0.69 0.76 0.86 0.93
1.03 0.91 0.92 1.06 1.04 1.04 0.97 0.98 1.01 0.95 0.85 0.82 0.76 0.71 0.75 0.83 0.90 0.99 1.15 1.27 1.35 1.40 1.31 1.42 1.76 1.63 1.49 1.27 1.08 0.99 0.77 0.59 0.50 0.51 0.57 0.79 0.90 0.94
1.13 1.15 1.11 1.13 1.07 0.95 0.92 0.94 0.91 0.86 0.89 0.85 0.71 0.61 0.62 0.72 0.80 0.90 0.98 1.08 1.16 1.22 1.28 1.34 1.56 1.68 1.63 1.38 1.05 0.96 0.96 0.86 0.64 0.56 0.56 0.61 0.68 0.77
1.24 1.23 1.22 1.20 1.11 1.03 0.99 0.88 0.78 0.78 0.83 0.77 0.67 0.61 0.60 0.67 0.78 0.88 1.00 1.04 1.16 1.18 1.26 1.35 1.51 1.76 1.75 1.34 1.12 1.00 0.87 0.95 0.82 0.61 0.57 0.60 0.62 0.59
1.25 1.27 1.22 1.15 1.11 1.01 0.91 0.83 0.78 0.79 0.79 0.71 0.70 0.70 0.70 0.72 0.75 0.80 0.97 1.08 1.17 1.12 1.24 1.45 1.55 1.70 1.75 1.62 1.43 1.09 0.87 0.78 0.76 0.65 0.61 0.69 0.74 0.69
1.26 1.19 1.03 0.93 0.89 0.84 0.81 0.77 0.74 0.72 0.67 0.67 0.70 0.71 0.73 0.75 0.76 0.79 0.92 1.07 1.11 1.06 1.14 1.36 1.59 1.82 1.95 1.91 1.65 1.24 0.98 0.83 0.80 0.74 0.65 0.70 0.83 0.85
1.04 0.90 0.77 0.76 0.75 0.69 0.66 0.65 0.62 0.59 0.60 0.65 0.68 0.69 0.73 0.77 0.81 0.84 0.91 1.00 1.04 1.05 1.10 1.24 1.52 1.80 1.89 1.86 1.91 1.56 1.22 1.00 0.95 0.95 0.82 0.69 0.73 0.80
0.83 0.79 0.72 0.67 0.66 0.64 0.60 0.58 0.57 0.58 0.61 0.65 0.64 0.64 0.69 0.75 0.79 0.80 0.86 0.95 1.01 1.06 1.11 1.19 1.42 1.67 1.77 1.63 1.68 1.75 1.66 1.33 1.11 1.09 0.99 0.84 0.78 0.92
0.79 0.72 0.68 0.66 0.65 0.62 0.60 0.58 0.59 0.60 0.59 0.63 0.65 0.63 0.64 0.70 0.73 0.71 0.77 0.90 1.00 1.04 1.06 1.06 1.23 1.49 1.67 1.61 1.51 1.51 1.70 1.74 1.38 1.17 1.06 1.05 1.03 1.06
0.75 0.74 0.68 0.67 0.66 0.64 0.64 0.64 0.62 0.59 0.56 0.59 0.60 0.60 0.61 0.66 0.69 0.68 0.72 0.80 0.86 0.90 0.94 0.99 1.12 1.45 1.71 1.72 1.54 1.43 1.60 1.80 1.83 1.52 1.23 1.11 1.18 1.27
0.76 0.77 0.74 0.69 0.64 0.61 0.62 0.61 0.59 0.55 0.51 0.51 0.53 0.55 0.57 0.61 0.61 0.63 0.66 0.70 0.75 0.80 0.88 1.00 1.12 1.34 1.60 1.69 1.63 1.50 1.49 1.59 1.69 1.64 1.58 1.28 0.89 0.71

GEFSNE_prec_meanprecacc_204.txt.gz
Total_Precipitation_Accumulation
0.78 0.73 0.73 0.66 0.63 0.63 0.66 0.77 0.94 0.77 0.41 0.27 0.27 0.29 0.29 0.33 0.38 0.35 0.32 0.37 0.43 0.50 0.55 0.61 0.68 0.79 1.12 1.80 2.78 3.47 3.33 2.65 1.93 1.55 1.58 1.89 2.36 2.82
0.85 0.81 0.79 0.75 0.69 0.67 0.68 0.67 0.75 0.83 0.61 0.29 0.26 0.30 0.34 0.35 0.42 0.39 0.37 0.42 0.44 0.48 0.52 0.55 0.62 0.73 0.88 1.17 1.77 2.72 3.33 3.24 2.62 2.04 1.84 1.97 2.21 2.69
0.88 0.89 0.85 0.80 0.78 0.70 0.69 0.67 0.64 0.71 0.71 0.35 0.26 0.30 0.40 0.44 0.46 0.44 0.43 0.40 0.39 0.43 0.48 0.54 0.58 0.68 0.82 0.99 1.25 1.86 2.75 3.25 3.21 2.71 2.31 2.15 2.15 2.32
1.02 1.00 0.96 0.93 0.93 0.85 0.81 0.74 0.66 0.63 0.71 0.56 0.33 0.32 0.40 0.49 0.55 0.54 0.49 0.43 0.41 0.48 0.50 0.53 0.57 0.63 0.76 0.92 1.08 1.34 1.92 2.65 3.12 3.08 2.68 2.32 2.18 2.26
1.31 1.27 1.21 1.15 1.14 1.07 0.99 0.87 0.74 0.65 0.65 0.65 0.48 0.38 0.42 0.53 0.67 0.67 0.62 0.55 0.46 0.52 0.54 0.55 0.58 0.60 0.65 0.76 0.93 1.10 1.34 1.74 2.33 2.89 3.07 2.78 2.42 2.29
1.53 1.48 1.49 1.46 1.40 1.31 1.26 1.07 0.89 0.82 0.75 0.75 0.63 0.51 0.50 0.57 0.78 0.87 0.83 0.74 0.62 0.53 0.57 0.56 0.59 0.61 0.60 0.60 0.66 0.82 1.08 1.45 1.86 2.41 2.96 3.08 2.75 2.46
1.35 1.32 1.39 1.53 1.58 1.57 1.56 1.37 1.21 1.17 1.07 1.01 0.88 0.74 0.65 0.71 0.87 0.94 0.99 0.92 0.85 0.71 0.59 0.51 0.50 0.49 0.49 0.52 0.59 0.71 0.90 1.13 1.43 1.87 2.43 2.93 2.97 2.76
1.20 1.15 1.16 1.28 1.35 1.40 1.51 1.51 1.52 1.57 1.49 1.32 1.14 0.98 0.78 0.71 0.81 1.04 1.13 1.21 1.17 0.89 0.75 0.64 0.54 0.52 0.48 0.45 0.50 0.59 0.77 0.99 1.25 1.52 1.88 2.36 2.78 2.90
1.05 1.04 1.02 1.04 1.14 1.06 1.16 1.29 1.39 1.54 1.62 1.56 1.46 1.15 0.90 0.80 0.93 1.14 1.22 1.27 1.17 1.00 0.99 1.01 0.81 0.69 0.59 0.55 0.58 0.58 0.68 0.86 1.05 1.27 1.50 1.79 2.21 2.64
1.06 0.96 0.91 0.90 1.03 1.09 1.14 1.13 1.10 1.21 1.42 1.54 1.60 1.39 1.14 1.06 1.25 1.45 1.54 1.52 1.35 1.24 1.23 1.30 1.05 0.86 0.77 0.71 0.68 0.61 0.62 0.71 0.86 1.03 1.22 1.42 1.71 2.13
1.19 1.10 1.00 0.87 1.08 1.20 1.12 1.04 0.95 0.99 1.13 1.36 1.52 1.51 1.47 1.47 1.59 1.80 1.88 1.89 1.76 1.49 1.39 1.43 1.28 1.05 0.98 0.95 0.86 0.73 0.62 0.63 0.71 0.85 0.98 1.13 1.32 1.70
1.19 1.15 1.22 1.13 1.20 1.16 1.02 1.02 1.02 0.92 0.89 0.97 1.05 1.12 1.12 1.14 1.36 1.56 1.66 1.80 1.80 1.80 1.56 1.47 1.49 1.41 1.47 1.22 0.98 0.75 0.63 0.63 0.66 0.72 0.79 0.89 1.06 1.24
1.20 1.13 1.12 1.23 1.18 1.10 1.04 1.00 1.08 0.94 0.83 0.89 0.92 0.93 0.95 1.00 1.06 1.23 1.44 1.60 1.74 1.74 1.53 1.55 1.76 1.59 1.56 1.42 1.16 0.89 0.65 0.56 0.57 0.68 0.76 0.83 0.92 0.97
1.13 1.00 1.01 1.16 1.15 1.13 1.05 1.08 1.12 1.07 0.97 0.95 0.88 0.82 0.83 0.90 0.97 1.06 1.23 1.37 1.44 1.48 1.39 1.51 1.87 1.73 1.59 1.36 1.17 1.07 0.84 0.66 0.56 0.57 0.62 0.85 0.95 0.98
1.23 1.24 1.20 1.22 1.17 1.05 1.01 1.03 1.03 1.00 1.03 0.98 0.82 0.71 0.70 0.79 0.88 0.98 1.06 1.16 1.26 1.31 1.37 1.42 1.64 1.77 1.72 1.47 1.11 1.02 1.02 0.92 0.68 0.60 0.61 0.65 0.72 0.80
1.31 1.30 1.29 1.29 1.21 1.12 1.08 0.98 0.89 0.91 0.96 0.90 0.78 0.71 0.70 0.76 0.85 0.95 1.07 1.12 1.25 1.28 1.35 1.44 1.59 1.85 1.84 1.43 1.19 1.05 0.92 1.00 0.87 0.64 0.61 0.64 0.65 0.61
1.32 1.34 1.29 1.24 1.23 1.12 1.01 0.94 0.90 0.91 0.92 0.83 0.81 0.82 0.81 0.81 0.83 0.88 1.04 1.14 1.24 1.21 1.32 1.53 1.64 1.78 1.83 1.70 1.51 1.16 0.92 0.84 0.81 0.69 0.65 0.74 0.78 0.71
1.32 1.25 1.09 1.02 1.01 0.96 0.92 0.89 0.87 0.86 0.80 0.80 0.81 0.82 0.83 0.84 0.85 0.87 0.99 1.13 1.18 1.13 1.21 1.42 1.65 1.90 2.04 2.00 1.73 1.32 1.05 0.89 0.86 0.80 0.70 0.74 0.87 0.88
1.10 0.96 0.84 0.84 0.85 0.80 0.77 0.76 0.74 0.71 0.73 0.77 0.78 0.78 0.82 0.87 0.90 0.93 0.98 1.07 1.11 1.11 1.17 1.30 1.58 1.86 1.96 1.93 1.98 1.63 1.28 1.07 1.03 1.03 0.88 0.73 0.76 0.83
0.90 0.87 0.81 0.76 0.75 0.73 0.69 0.68 0.67 0.68 0.73 0.77 0.75 0.74 0.78 0.85 0.87 0.88 0.92 1.02 1.08 1.13 1.17 1.25 1.48 1.72 1.81 1.67 1.73 1.81 1.73 1.39 1.17 1.17 1.06 0.89 0.82 0.96
0.87 0.81 0.78 0.76 0.74 0.70 0.68 0.67 0.68 0.69 0.69 0.74 0.76 0.73 0.72 0.79 0.81 0.79 0.84 0.96 1.06 1.10 1.12 1.12 1.29 1.55 1.71 1.66 1.56 1.57 1.76 1.81 1.44 1.22 1.12 1.10 1.08 1.10
0.83 0.82 0.78 0.77 0.76 0.73 0.73 0.72 0.71 0.68 0.66 0.68 0.69 0.70 0.71 0.74 0.77 0.76 0.80 0.87 0.92 0.96 1.00 1.05 1.18 1.51 1.77 1.78 1.59 1.49 1.65 1.86 1.89 1.58 1.28 1.15 1.22 1.31
0.83 0.84 0.82 0.78 0.73 0.70 0.70 0.69 0.67 0.64 0.60 0.60 0.61 0.62 0.66 0.70 0.69 0.71 0.74 0.77 0.81 0.86 0.94 1.06 1.17 1.40 1.67 1.76 1.69 1.55 1.54 1.64 1.74 1.69 1.63 1.33 0.92 0.75

GEFSNE_prec_meanprecacc_210.txt.gz
Total_Precipitation_Accumulation
0.79 0.75 0.75 0.68 0.67 0.70 0.75 0.87 1.02 0.83 0.46 0.31 0.32 0.33 0.33 0.37 0.44 0.42 0.39 0.43 0.50 0.57 0.63 0.70 0.77 0.87 1.19 1.88 2.88 3.59 3.48 2.81 2.09 1.72 1.77 2.08 2.56 3.01
0.86 0.83 0.81 0.77 0.74 0.74 0.77 0.77 0.83 0.90 0.67 0.33 0.30 0.34 0.39 0.40 0.48 0.46 0.45 0.51 0.51 0.55 0.59 0.62 0.69 0.81 0.95 1.25 1.86 2.82 3.45 3.37 2.74 2.16 1.98 2.12 2.38 2.85
0.89 0.90 0.86 0.82 0.82 0.77 0.77 0.74 0.71 0.78 0.78 0.40 0.30 0.35 0.46 0.51 0.54 0.52 0.53 0.51 0.48 0.51 0.56 0.62 0.65 0.75 0.89 1.07 1.33 1.93 2.83 3.36 3.34 2.85 2.46 2.30 2.29 2.44
1.04 1.02 0.98 0.95 0.97 0.91 0.86 0.80 0.72 0.70 0.78 0.62 0.37 0.36 0.46 0.57 0.64 0.64 0.61 0.57 0.52 0.58 0.60 0.61 0.65 0.70 0.83 1.00 1.16 1.42 2.00 2.76 3.25 3.22 2.82 2.46 2.30 2.38
1.32 1.29 1.23 1.18 1.19 1.13 1.05 0.92 0.81 0.73 0.73 0.72 0.52 0.42 0.48 0.61 0.77 0.78 0.74 0.70 0.60 0.65 0.66 0.66 0.68 0.69 0.74 0.86 1.02 1.18 1.42 1.82 2.43 2.99 3.17 2.89 2.53 2.40
1.54 1.50 1.52 1.48 1.43 1.37 1.32 1.12 0.95 0.88 0.83 0.83 0.69 0.56 0.56 0.65 0.89 0.99 0.97 0.90 0.79 0.68 0.70 0.70 0.72 0.72 0.70 0.70 0.75 0.90 1.15 1.53 1.95 2.51 3.06 3.18 2.84 2.55
1.36 1.34 1.43 1.56 1.62 1.62 1.60 1.42 1.26 1.22 1.13 1.08 0.94 0.79 0.72 0.80 0.98 1.06 1.12 1.07 1.03 0.87 0.73 0.66 0.64 0.63 0.62 0.64 0.70 0.79 0.97 1.21 1.51 1.95 2.52 3.04 3.08 2.87
1.22 1.17 1.19 1.32 1.39 1.44 1.55 1.56 1.58 1.62 1.55 1.38 1.20 1.04 0.85 0.80 0.91 1.16 1.27 1.35 1.34 1.07 0.90 0.78 0.66 0.65 0.62 0.59 0.63 0.69 0.85 1.07 1.32 1.60 1.96 2.45 2.88 3.02
1.07 1.06 1.06 1.09 1.17 1.10 1.20 1.33 1.43 1.59 1.68 1.62 1.53 1.21 0.97 0.88 1.03 1.25 1.35 1.40 1.31 1.16 1.13 1.16 0.94 0.81 0.73 0.70 0.72 0.68 0.76 0.94 1.14 1.35 1.59 1.90 2.33 2.74
1.10 1.00 0.94 0.94 1.06 1.12 1.17 1.17 1.14 1.25 1.47 1.60 1.66 1.44 1.20 1.14 1.34 1.56 1.67 1.66 1.51 1.40 1.35 1.44 1.17 0.97 0.89 0.84 0.81 0.71 0.70 0.78 0.93 1.11 1.32 1.53 1.84 2.25
1.23 1.14 1.03 0.90 1.11 1.23 1.16 1.08 0.99 1.04 1.17 1.42 1.57 1.57 1.53 1.56 1.70 1.92 2.02 2.04 1.92 1.65 1.50 1.54 1.38 1.15 1.09 1.07 0.98 0.83 0.71 0.70 0.77 0.91 1.07 1.25 1.46 1.84
1.24 1.20 1.26 1.16 1.22 1.19 1.06 1.06 1.07 0.96 0.92 1.01 1.09 1.17 1.17 1.21 1.46 1.66 1.78 1.92 1.91 1.92 1.64 1.54 1.55 1.48 1.57 1.32 1.08 0.84 0.72 0.70 0.72 0.79 0.88 1.00 1.17 1.34
1.25 1.19 1.18 1.28 1.21 1.14 1.08 1.04 1.13 0.98 0.87 0.93 0.96 0.97 1.00 1.07 1.15 1.33 1.54 1.69 1.83 1.82 1.59 1.61 1.82 1.66 1.65 1.53 1.27 1.00 0.75 0.64 0.64 0.75 0.84 0.93 1.01 1.05
1.19 1.05 1.06 1.20 1.19 1.18 1.10 1.14 1.19 1.13 1.03 1.00 0.94 0.87 0.90 0.98 1.06 1.15 1.32 1.46 1.53 1.56 1.46 1.57 1.93 1.80 1.67 1.45 1.28 1.19 0.96 0.74 0.62 0.63 0.70 0.93 1.02 1.05
1.28 1.29 1.24 1.25 1.20 1.09 1.06 1.11 1.12 1.08 1.12 1.06 0.90 0.79 0.78 0.88 0.96 1.07 1.16 1.27 1.36 1.42 1.47 1.51 1.73 1.84 1.80 1.56 1.21 1.13 1.12 1.00 0.74 0.64 0.66 0.71 0.77 0.87
1.37 1.36 1.34 1.33 1.24 1.16 1.14 1.04 0.97 1.01 1.07 0.99 0.88 0.83 0.80 0.87 0.95 1.04 1.15 1.21 1.35 1.38 1.44 1.52 1.66 1.91 1.92 1.51 1.28 1.15 0.99 1.07 0.92 0.69 0.65 0.68 0.69 0.65
1.38 1.39 1.33 1.29 1.27 1.17 1.06 1.00 0.97 1.00 1.01 0.93 0.91 0.94 0.92 0.92 0.93 0.96 1.12 1.22 1.31 1.28 1.39 1.59 1.69 1.83 1.90 1.77 1.59 1.25 0.98 0.88 0.85 0.73 0.69 0.78 0.82 0.75
1.36 1.30 1.14 1.07 1.06 1.02 0.98 0.95 0.93 0.93 0.87 0.88 0.91 0.92 0.94 0.94 0.94 0.95 1.06 1.20 1.24 1.19 1.27 1.47 1.70 1.95 2.10 2.07 1.82 1.39 1.11 0.95 0.90 0.83 0.73 0.78 0.91 0.92
1.14 1.01 0.88 0.89 0.90 0.85 0.83 0.81 0.79 0.77 0.79 0.85 0.87 0.88 0.92 0.95 0.97 1.00 1.05 1.14 1.17 1.17 1.23 1.35 1.62 1.90 2.01 1.99 2.05 1.69 1.34 1.13 1.08 1.08 0.92 0.76 0.79 0.86
0.93 0.90 0.84 0.79 0.79 0.78 0.74 0.72 0.71 0.72 0.79 0.85 0.84 0.82 0.86 0.92 0.95 0.95 0.98 1.07 1.13 1.18 1.23 1.31 1.52 1.76 1.85 1.71 1.77 1.86 1.78 1.45 1.23 1.22 1.11 0.93 0.87 1.00
0.89 0.83 0.81 0.80 0.77 0.74 0.71 0.71 0.73 0.74 0.75 0.81 0.84 0.81 0.81 0.87 0.90 0.87 0.91 1.02 1.12 1.16 1.18 1.18 1.34 1.60 1.75 1.69 1.59 1.60 1.81 1.86 1.50 1.27 1.16 1.14 1.13 1.16
0.86 0.85 0.81 0.81 0.80 0.76 0.76 0.76 0.75 0.73 0.71 0.74 0.76 0.78 0.79 0.83 0.85 0.83 0.87 0.93 0.98 1.01 1.06 1.11 1.23 1.55 1.81 1.82 1.63 1.52 1.69 1.91 1.96 1.64 1.33 1.20 1.27 1.36
0.88 0.88 0.85 0.81 0.77 0.74 0.74 0.73 0.71 0.68 0.65 0.66 0.68 0.70 0.74 0.78 0.78 0.79 0.81 0.84 0.87 0.91 1.00 1.12 1.23 1.45 1.71 1.80 1.73 1.59 1.59 1.69 1.80 1.76 1.71 1.40 0.98 0.79

GEFSNE_prec_meanprecacc_216.txt.gz
Total_Precipitation_Accumulation
0.79 0.75 0.76 0.69 0.68 0.71 0.76 0.89 1.05 0.87 0.49 0.34 0.35 0.37 0.38 0.43 0.51 0.48 0.43 0.47 0.54 0.61 0.68 0.76 0.84 0.96 1.29 1.97 2.98 3.69 3.58 2.91 2.19 1.82 1.88 2.21 2.70 3.16
0.86 0.83 0.81 0.78 0.75 0.75 0.78 0.78 0.85 0.93 0.70 0.35 0.32 0.36 0.42 0.44 0.52 0.50 0.49 0.56 0.56 0.59 0.63 0.67 0.75 0.88 1.04 1.33 1.95 2.91 3.53 3.46 2.84 2.26 2.08 2.22 2.49 2.97
0.90 0.91 0.87 0.83 0.83 0.78 0.78 0.76 0.73 0.80 0.80 0.42 0.32 0.38 0.48 0.53 0.57 0.55 0.57 0.56 0.53 0.57 0.61 0.66 0.70 0.81 0.97 1.15 1.42 2.02 2.91 3.45 3.42 2.93 2.55 2.39 2.38 2.54
1.05 1.02 0.99 0.96 0.98 0.92 0.87 0.81 0.74 0.72 0.81 0.65 0.41 0.39 0.49 0.59 0.66 0.67 0.65 0.63 0.59 0.66 0.68 0.69 0.71 0.77 0.91 1.07 1.24 1.51 2.09 2.85 3.33 3.29 2.90 2.56 2.41 2.49
1.33 1.30 1.23 1.18 1.20 1.14 1.06 0.94 0.82 0.75 0.76 0.76 0.57 0.46 0.52 0.64 0.80 0.81 0.78 0.75 0.68 0.74 0.75 0.77 0.77 0.78 0.83 0.95 1.10 1.25 1.49 1.90 2.51 3.06 3.25 2.99 2.64 2.51
1.55 1.51 1.53 1.49 1.44 1.38 1.33 1.14 0.96 0.90 0.86 0.86 0.73 0.60 0.60 0.69 0.93 1.03 1.02 0.95 0.87 0.78 0.79 0.81 0.84 0.84 0.81 0.80 0.85 0.98 1.22 1.60 2.02 2.59 3.14 3.27 2.93 2.65
1.37 1.35 1.44 1.57 1.63 1.63 1.62 1.43 1.28 1.24 1.16 1.12 0.98 0.83 0.76 0.85 1.03 1.11 1.18 1.13 1.11 0.96 0.81 0.75 0.75 0.75 0.74 0.75 0.79 0.89 1.06 1.29 1.59 2.04 2.60 3.11 3.17 2.95
1.23 1.18 1.20 1.33 1.40 1.45 1.56 1.58 1.60 1.65 1.59 1.43 1.24 1.08 0.90 0.84 0.97 1.24 1.35 1.43 1.44 1.16 1.00 0.91 0.79 0.78 0.76 0.73 0.75 0.78 0.95 1.18 1.42 1.69 2.04 2.53 2.96 3.10
1.08 1.07 1.07 1.10 1.19 1.12 1.22 1.35 1.46 1.62 1.72 1.67 1.58 1.26 1.02 0.93 1.09 1.34 1.45 1.51 1.41 1.27 1.26 1.31 1.08 0.94 0.87 0.86 0.85 0.78 0.86 1.04 1.23 1.45 1.67 1.98 2.41 2.82
1.11 1.01 0.96 0.96 1.10 1.15 1.19 1.19 1.16 1.27 1.50 1.64 1.70 1.49 1.25 1.20 1.40 1.63 1.76 1.78 1.62 1.51 1.47 1.58 1.31 1.11 1.04 0.99 0.94 0.82 0.79 0.88 1.04 1.20 1.40 1.61 1.91 2.31
1.24 1.15 1.05 0.93 1.14 1.25 1.18 1.11 1.02 1.07 1.21 1.47 1.63 1.63 1.59 1.63 1.77 2.01 2.12 2.16 2.04 1.76 1.61 1.66 1.52 1.30 1.23 1.21 1.09 0.93 0.80 0.80 0.87 1.00 1.15 1.32 1.52 1.90
1.26 1.23 1.30 1.21 1.26 1.22 1.09 1.10 1.12 1.00 0.97 1.05 1.13 1.22 1.23 1.28 1.53 1.74 1.87 2.02 2.01 2.02 1.73 1.65 1.67 1.60 1.70 1.43 1.16 0.92 0.80 0.79 0.81 0.87 0.94 1.06 1.23 1.40
1.28 1.22 1.21 1.32 1.25 1.18 1.12 1.08 1.18 1.03 0.92 0.98 1.00 1.01 1.05 1.13 1.21 1.40 1.61 1.76 1.90 1.91 1.67 1.70 1.92 1.75 1.75 1.64 1.36 1.08 0.82 0.70 0.71 0.81 0.90 1.00 1.08 1.11
1.21 1.08 1.10 1.24 1.22 1.22 1.14 1.18 1.23 1.19 1.08 1.06 0.99 0.93 0.96 1.04 1.12 1.22 1.38 1.52 1.60 1.65 1.54 1.66 2.03 1.89 1.76 1.55 1.38 1.30 1.04 0.79 0.67 0.68 0.76 1.01 1.09 1.11
1.31 1.33 1.27 1.28 1.23 1.12 1.10 1.15 1.16 1.13 1.17 1.12 0.96 0.85 0.85 0.95 1.04 1.16 1.24 1.35 1.45 1.51 1.57 1.61 1.82 1.94 1.89 1.65 1.31 1.23 1.20 1.07 0.80 0.70 0.71 0.76 0.82 0.92
1.39 1.39 1.37 1.35 1.26 1.18 1.17 1.08 1.00 1.05 1.12 1.06 0.95 0.90 0.87 0.93 1.03 1.12 1.24 1.29 1.44 1.49 1.55 1.62 1.76 2.01 2.02 1.61 1.37 1.23 1.05 1.14 0.99 0.74 0.70 0.73 0.73 0.70
1.40 1.41 1.36 1.30 1.29 1.19 1.09 1.03 1.01 1.04 1.07 0.99 0.98 1.02 0.99 0.99 1.02 1.05 1.19 1.28 1.39 1.37 1.49 1.69 1.78 1.92 1.99 1.84 1.66 1.31 1.04 0.94 0.91 0.78 0.74 0.83 0.87 0.80
1.39 1.33 1.16 1.09 1.09 1.05 1.02 0.98 0.97 0.97 0.92 0.93 0.97 1.00 1.01 1.02 1.03 1.04 1.14 1.26 1.30 1.26 1.33 1.55 1.77 2.03 2.17 2.14 1.88 1.45 1.16 1.00 0.95 0.88 0.77 0.82 0.96 0.96
1.17 1.03 0.92 0.92 0.93 0.89 0.86 0.85 0.82 0.81 0.84 0.89 0.93 0.95 0.99 1.02 1.05 1.09 1.13 1.20 1.22 1.22 1.28 1.42 1.70 1.98 2.08 2.06 2.12 1.75 1.38 1.17 1.13 1.13 0.96 0.80 0.84 0.91
0.95 0.92 0.87 0.83 0.83 0.81 0.77 0.76 0.74 0.75 0.83 0.89 0.89 0.88 0.92 0.99 1.02 1.02 1.05 1.13 1.19 1.23 1.29 1.36 1.59 1.82 1.91 1.76 1.82 1.91 1.83 1.49 1.27 1.27 1.16 0.98 0.91 1.05
0.90 0.85 0.83 0.82 0.80 0.77 0.74 0.74 0.76 0.77 0.78 0.85 0.88 0.86 0.87 0.94 0.96 0.93 0.96 1.08 1.17 1.22 1.23 1.23 1.39 1.65 1.79 1.73 1.64 1.66 1.85 1.90 1.53 1.30 1.20 1.19 1.17 1.22
0.87 0.86 0.82 0.83 0.81 0.78 0.78 0.78 0.78 0.75 0.74 0.77 0.80 0.82 0.84 0.89 0.91 0.89 0.92 0.99 1.03 1.06 1.11 1.16 1.28 1.59 1.85 1.86 1.68 1.57 1.73 1.94 1.99 1.69 1.38 1.25 1.30 1.40
0.90 0.89 0.87 0.83 0.79 0.76 0.76 0.75 0.73 0.70 0.67 0.68 0.71 0.73 0.78 0.83 0.83 0.84 0.85 0.88 0.92 0.97 1.05 1.17 1.28 1.50 1.76 1.84 1.77 1.63 1.62 1.72 1.83 1.80 1.76 1.46 1.03 0.83

GEFSNE_prec_meanprecacc_222.txt.gz
Total_Precipitation_Accumulation
0.79 0.75 0.76 0.69 0.68 0.71 0.76 0.90 1.07 0.88 0.49 0.34 0.35 0.38 0.38 0.44 0.52 0.50 0.45 0.50 0.56 0.63 0.70 0.79 0.87 0.99 1.32 2.00 3.03 3.77 3.68 3.01 2.29 1.93 1.99 2.32 2.82 3.30
0.86 0.84 0.82 0.78 0.75 0.76 0.79 0.79 0.86 0.94 0.71 0.36 0.32 0.37 0.43 0.45 0.53 0.51 0.51 0.59 0.60 0.62 0.66 0.70 0.78 0.92 1.07 1.36 1.99 2.98 3.63 3.56 2.94 2.38 2.21 2.35 2.62 3.12
0.90 0.91 0.87 0.83 0.83 0.79 0.79 0.76 0.74 0.81 0.82 0.43 0.33 0.39 0.49 0.54 0.58 0.57 0.59 0.59 0.57 0.60 0.64 0.70 0.74 0.85 1.00 1.19 1.47 2.09 3.01 3.53 3.52 3.04 2.67 2.53 2.52 2.69
1.05 1.03 0.99 0.96 0.99 0.92 0.88 0.81 0.74 0.72 0.82 0.66 0.41 0.41 0.50 0.60 0.68 0.70 0.68 0.66 0.62 0.69 0.71 0.74 0.76 0.81 0.95 1.12 1.30 1.59 2.18 2.92 3.41 3.38 3.01 2.67 2.52 2.61
1.33 1.30 1.24 1.19 1.20 1.15 1.07 0.94 0.83 0.75 0.77 0.77 0.58 0.47 0.53 0.65 0.82 0.84 0.82 0.77 0.70 0.77 0.80 0.81 0.81 0.82 0.87 1.01 1.17 1.33 1.57 1.98 2.58 3.15 3.34 3.07 2.73 2.61
1.55 1.51 1.53 1.50 1.45 1.38 1.34 1.14 0.97 0.91 0.86 0.87 0.75 0.61 0.61 0.70 0.95 1.06 1.04 0.97 0.89 0.81 0.82 0.83 0.87 0.87 0.85 0.86 0.92 1.06 1.30 1.67 2.11 2.68 3.23 3.35 3.02 2.73
1.37 1.35 1.44 1.58 1.64 1.64 1.63 1.44 1.29 1.25 1.17 1.13 1.00 0.84 0.77 0.86 1.05 1.14 1.21 1.16 1.16 0.99 0.84 0.77 0.78 0.79 0.79 0.82 0.87 0.96 1.14 1.37 1.68 2.14 2.72 3.23 3.28 3.06
1.23 1.18 1.20 1.33 1.41 1.46 1.58 1.59 1.61 1.67 1.60 1.45 1.27 1.10 0.91 0.86 0.99 1.27 1.39 1.49 1.50 1.21 1.03 0.95 0.83 0.83 0.82 0.80 0.83 0.86 1.03 1.27 1.52 1.80 2.18 2.70 3.13 3.23
1.08 1.07 1.07 1.10 1.20 1.12 1.23 1.37 1.47 1.63 1.74 1.70 1.61 1.28 1.04 0.96 1.12 1.38 1.49 1.57 1.48 1.33 1.32 1.38 1.15 1.01 0.94 0.93 0.94 0.87 0.96 1.16 1.38 1.59 1.83 2.16 2.59 2.98
1.11 1.01 0.96 0.96 1.10 1.16 1.20 1.20 1.17 1.28 1.52 1.66 1.73 1.51 1.28 1.23 1.44 1.68 1.82 1.84 1.69 1.58 1.55 1.67 1.39 1.19 1.11 1.06 1.02 0.91 0.92 1.03 1.20 1.37 1.57 1.77 2.08 2.46
1.24 1.16 1.06 0.93 1.16 1.27 1.20 1.13 1.03 1.08 1.23 1.49 1.65 1.65 1.63 1.67 1.82 2.06 2.19 2.23 2.11 1.82 1.68 1.74 1.59 1.38 1.33 1.33 1.20 1.05 0.93 0.95 1.01 1.13 1.27 1.44 1.63 2.00
1.26 1.23 1.30 1.22 1.28 1.24 1.10 1.12 1.14 1.01 0.98 1.07 1.15 1.24 1.26 1.30 1.57 1.80 1.94 2.10 2.08 2.09 1.80 1.72 1.75 1.68 1.81 1.55 1.28 1.03 0.92 0.91 0.92 0.96 1.03 1.15 1.31 1.47
1.28 1.23 1.22 1.34 1.27 1.20 1.13 1.10 1.20 1.05 0.94 1.00 1.02 1.04 1.07 1.15 1.25 1.44 1.66 1.83 1.98 1.99 1.74 1.78 2.01 1.85 1.86 1.75 1.46 1.17 0.90 0.78 0.78 0.89 0.97 1.07 1.14 1.17
1.22 1.09 1.11 1.26 1.24 1.24 1.16 1.20 1.25 1.21 1.10 1.08 1.01 0.95 0.98 1.07 1.15 1.25 1.42 1.57 1.66 1.71 1.61 1.74 2.13 2.00 1.86 1.64 1.47 1.38 1.11 0.86 0.73 0.74 0.81 1.05 1.13 1.16
1.32 1.34 1.30 1.31 1.25 1.14 1.11 1.17 1.18 1.15 1.19 1.14 0.99 0.89 0.88 0.98 1.07 1.18 1.27 1.38 1.49 1.56 1.63 1.68 1.90 2.03 2.00 1.76 1.39 1.30 1.28 1.14 0.85 0.75 0.76 0.80 0.85 0.96
1.41 1.40 1.39 1.37 1.27 1.19 1.19 1.10 1.02 1.08 1.15 1.09 0.98 0.93 0.91 0.96 1.06 1.16 1.27 1.33 1.49 1.54 1.60 1.68 1.82 2.08 2.12 1.70 1.46 1.31 1.12 1.21 1.05 0.78 0.73 0.76 0.77 0.74
1.41 1.43 1.37 1.32 1.30 1.20 1.11 1.05 1.03 1.07 1.09 1.01 1.01 1.04 1.02 1.02 1.05 1.09 1.23 1.33 1.44 1.43 1.55 1.75 1.84 1.99 2.06 1.92 1.74 1.39 1.11 1.00 0.95 0.81 0.76 0.86 0.91 0.84
1.41 1.34 1.17 1.10 1.10 1.06 1.03 1.00 0.99 1.00 0.95 0.95 0.99 1.02 1.04 1.05 1.06 1.08 1.17 1.30 1.35 1.31 1.39 1.61 1.84 2.09 2.24 2.21 1.96 1.53 1.23 1.05 0.99 0.91 0.78 0.84 1.01 1.01
1.18 1.04 0.93 0.93 0.94 0.90 0.88 0.87 0.85 0.83 0.86 0.91 0.94 0.96 1.01 1.05 1.08 1.12 1.16 1.23 1.26 1.27 1.34 1.48 1.76 2.04 2.14 2.13 2.19 1.82 1.45 1.22 1.16 1.16 0.98 0.82 0.87 0.95
0.96 0.93 0.88 0.84 0.84 0.83 0.79 0.78 0.76 0.77 0.84 0.91 0.91 0.89 0.94 1.01 1.05 1.05 1.08 1.16 1.23 1.28 1.33 1.41 1.65 1.89 1.97 1.82 1.89 1.98 1.88 1.53 1.31 1.30 1.18 1.00 0.95 1.08
0.91 0.86 0.83 0.83 0.81 0.78 0.76 0.76 0.77 0.78 0.79 0.86 0.90 0.88 0.88 0.96 0.99 0.96 0.99 1.11 1.21 1.26 1.27 1.27 1.44 1.72 1.85 1.78 1.69 1.71 1.89 1.94 1.57 1.34 1.23 1.22 1.21 1.25
0.88 0.87 0.83 0.83 0.82 0.79 0.79 0.80 0.80 0.77 0.75 0.79 0.81 0.83 0.86 0.91 0.94 0.91 0.95 1.02 1.07 1.11 1.15 1.19 1.32 1.65 1.91 1.91 1.72 1.60 1.76 1.97 2.02 1.72 1.41 1.27 1.33 1.45
0.90 0.90 0.88 0.84 0.80 0.77 0.77 0.76 0.75 0.72 0.69 0.70 0.73 0.75 0.80 0.85 0.85 0.86 0.88 0.92 0.96 1.01 1.09 1.21 1.32 1.55 1.81 1.88 1.81 1.65 1.64 1.74 1.85 1.83 1.80 1.49 1.07 0.86

GEFSNE_prec_meanprecacc_228.txt.gz
Total_Precipitation_Accumulation
0.79 0.76 0.76 0.69 0.69 0.71 0.76 0.90 1.08 0.90 0.50 0.34 0.35 0.38 0.38 0.44 0.52 0.50 0.46 0.50 0.57 0.65 0.72 0.80 0.88 1.00 1.33 2.02 3.05 3.79 3.70 3.04 2.33 1.97 2.04 2.39 2.92 3.43
0.86 0.84 0.82 0.78 0.75 0.76 0.79 0.79 0.86 0.95 0.72 0.36 0.33 0.37 0.43 0.45 0.54 0.52 0.52 0.60 0.61 0.63 0.68 0.71 0.79 0.94 1.09 1.38 2.01 3.00 3.66 3.59 2.99 2.43 2.26 2.42 2.71 3.24
0.91 0.91 0.87 0.83 0.83 0.79 0.79 0.77 0.74 0.82 0.83 0.44 0.33 0.39 0.49 0.55 0.58 0.58 0.60 0.60 0.58 0.62 0.67 0.72 0.76 0.87 1.02 1.21 1.48 2.11 3.04 3.58 3.59 3.12 2.75 2.62 2.64 2.81
1.05 1.03 0.99 0.97 0.99 0.93 0.88 0.82 0.75 0.73 0.83 0.67 0.42 0.41 0.51 0.61 0.69 0.71 0.69 0.67 0.63 0.71 0.74 0.75 0.78 0.83 0.96 1.13 1.32 1.62 2.23 3.01 3.52 3.48 3.10 2.77 2.62 2.69
1.34 1.31 1.24 1.19 1.21 1.15 1.07 0.95 0.83 0.76 0.77 0.78 0.58 0.48 0.54 0.66 0.83 0.85 0.82 0.78 0.71 0.78 0.82 0.82 0.83 0.83 0.89 1.04 1.21 1.39 1.65 2.06 2.64 3.20 3.40 3.14 2.80 2.68
1.55 1.52 1.54 1.50 1.45 1.39 1.35 1.15 0.97 0.91 0.87 0.88 0.76 0.62 0.62 0.71 0.96 1.07 1.04 0.97 0.90 0.82 0.84 0.85 0.88 0.89 0.88 0.90 0.99 1.13 1.37 1.73 2.16 2.73 3.29 3.42 3.08 2.80
1.37 1.35 1.44 1.58 1.64 1.65 1.63 1.45 1.29 1.26 1.18 1.14 1.01 0.85 0.78 0.87 1.06 1.15 1.22 1.17 1.17 1.00 0.85 0.80 0.81 0.81 0.82 0.87 0.94 1.02 1.19 1.42 1.72 2.19 2.78 3.30 3.34 3.13
1.24 1.18 1.20 1.33 1.41 1.47 1.58 1.60 1.62 1.68 1.62 1.46 1.28 1.11 0.92 0.88 1.01 1.28 1.41 1.50 1.52 1.22 1.05 0.97 0.86 0.87 0.87 0.85 0.88 0.92 1.07 1.32 1.57 1.85 2.24 2.76 3.20 3.32
1.08 1.07 1.07 1.10 1.20 1.12 1.23 1.37 1.48 1.64 1.75 1.71 1.63 1.29 1.05 0.97 1.14 1.40 1.51 1.59 1.51 1.35 1.34 1.41 1.17 1.04 0.97 0.97 0.98 0.91 1.01 1.21 1.43 1.65 1.90 2.24 2.70 3.14
1.11 1.01 0.96 0.97 1.10 1.16 1.20 1.20 1.17 1.29 1.53 1.67 1.74 1.52 1.29 1.25 1.46 1.70 1.84 1.87 1.72 1.61 1.57 1.70 1.42 1.22 1.14 1.09 1.06 0.96 0.96 1.08 1.26 1.44 1.66 1.88 2.21 2.62
1.24 1.16 1.06 0.94 1.16 1.28 1.20 1.13 1.03 1.08 1.24 1.50 1.67 1.67 1.65 1.69 1.84 2.09 2.22 2.27 2.15 1.85 1.71 1.77 1.62 1.41 1.36 1.36 1.25 1.12 0.99 1.00 1.10 1.24 1.38 1.57 1.80 2.15
1.26 1.23 1.30 1.22 1.29 1.25 1.11 1.13 1.14 1.02 0.99 1.08 1.16 1.25 1.27 1.31 1.59 1.82 1.97 2.14 2.12 2.11 1.82 1.75 1.79 1.72 1.85 1.60 1.34 1.10 0.97 0.96 0.99 1.05 1.12 1.25 1.43 1.58
1.28 1.23 1.23 1.35 1.29 1.21 1.15 1.11 1.21 1.06 0.95 1.01 1.03 1.05 1.08 1.16 1.26 1.45 1.68 1.87 2.02 2.02 1.77 1.82 2.06 1.89 1.91 1.81 1.55 1.24 0.96 0.83 0.83 0.95 1.03 1.13 1.21 1.24
1.23 1.10 1.12 1.27 1.26 1.25 1.17 1.21 1.27 1.22 1.11 1.09 1.02 0.96 0.99 1.08 1.16 1.27 1.45 1.60 1.69 1.75 1.65 1.78 2.19 2.05 1.91 1.70 1.55 1.43 1.15 0.90 0.78 0.80 0.87 1.10 1.17 1.20
1.32 1.35 1.30 1.31 1.26 1.14 1.12 1.18 1.19 1.16 1.20 1.16 1.00 0.90 0.90 1.00 1.09 1.20 1.29 1.40 1.51 1.58 1.67 1.72 1.96 2.08 2.05 1.82 1.45 1.35 1.33 1.19 0.90 0.81 0.82 0.84 0.89 1.00
1.41 1.41 1.39 1.38 1.28 1.20 1.19 1.10 1.03 1.09 1.16 1.11 1.00 0.95 0.92 0.98 1.07 1.18 1.29 1.34 1.51 1.56 1.63 1.72 1.86 2.13 2.16 1.75 1.52 1.37 1.19 1.27 1.12 0.84 0.78 0.81 0.81 0.78
1.42 1.43 1.37 1.32 1.30 1.20 1.11 1.05 1.03 1.08 1.11 1.03 1.03 1.06 1.03 1.03 1.07 1.10 1.25 1.34 1.46 1.45 1.58 1.78 1.87 2.02 2.10 1.97 1.80 1.46 1.18 1.07 1.02 0.87 0.81 0.90 0.95 0.88
1.41 1.34 1.18 1.10 1.10 1.06 1.03 1.01 1.00 1.01 0.96 0.97 1.01 1.04 1.06 1.06 1.08 1.09 1.19 1.32 1.38 1.34 1.43 1.65 1.87 2.13 2.28 2.26 2.03 1.61 1.30 1.13 1.06 0.95 0.82 0.88 1.04 1.04
1.18 1.05 0.93 0.94 0.95 0.90 0.88 0.87 0.86 0.84 0.87 0.93 0.96 0.99 1.03 1.07 1.10 1.13 1.18 1.25 1.28 1.29 1.37 1.52 1.80 2.09 2.18 2.17 2.25 1.89 1.51 1.28 1.22 1.20 1.02 0.86 0.92 0.99
0.96 0.94 0.89 0.84 0.85 0.83 0.79 0.78 0.77 0.78 0.86 0.92 0.92 0.91 0.95 1.03 1.06 1.07 1.10 1.18 1.25 1.30 1.36 1.44 1.68 1.94 2.03 1.88 1.95 2.04 1.95 1.58 1.34 1.34 1.22 1.03 0.98 1.12
0.92 0.86 0.84 0.83 0.81 0.78 0.76 0.77 0.78 0.79 0.81 0.88 0.91 0.89 0.90 0.97 1.00 0.97 1.01 1.12 1.23 1.29 1.30 1.30 1.47 1.75 1.90 1.82 1.74 1.77 1.94 1.98 1.61 1.37 1.26 1.25 1.25 1.30
0.89 0.88 0.84 0.84 0.83 0.80 0.80 0.81 0.81 0.78 0.77 0.80 0.82 0.85 0.87 0.92 0.95 0.92 0.96 1.04 1.09 1.13 1.18 1.22 1.35 1.68 1.95 1.96 1.78 1.65 1.80 2.01 2.06 1.76 1.45 1.32 1.39 1.52
0.91 0.91 0.88 0.84 0.80 0.78 0.78 0.77 0.76 0.73 0.71 0.72 0.74 0.77 0.81 0.87 0.86 0.87 0.89 0.93 0.98 1.03 1.12 1.23 1.34 1.58 1.86 1.94 1.86 1.69 1.67 1.77 1.88 1.87 1.85 1.56 1.13 0.92

GEFSNE_prec_meanprecacc_234.txt.gz
Total_Precipitation_Accumulation
0.79 0.76 0.76 0.70 0.69 0.71 0.77 0.91 1.09 0.90 0.50 0.34 0.35 0.38 0.38 0.44 0.52 0.50 0.46 0.51 0.58 0.66 0.73 0.82 0.89 1.02 1.35 2.04 3.06 3.81 3.72 3.06 2.35 2.00 2.08 2.43 2.96 3.48
0.87 0.84 0.82 0.79 0.75 0.76 0.79 0.80 0.87 0.96 0.73 0.36 0.33 0.37 0.43 0.45 0.54 0.52 0.53 0.60 0.61 0.64 0.69 0.73 0.81 0.95 1.10 1.40 2.02 3.02 3.68 3.61 3.02 2.47 2.31 2.46 2.76 3.30
0.91 0.91 0.88 0.84 0.84 0.79 0.80 0.77 0.74 0.82 0.84 0.44 0.34 0.39 0.50 0.55 0.59 0.59 0.61 0.60 0.59 0.63 0.69 0.74 0.77 0.88 1.03 1.22 1.50 2.13 3.06 3.60 3.62 3.16 2.81 2.69 2.72 2.89
1.05 1.03 0.99 0.97 0.99 0.93 0.88 0.82 0.75 0.73 0.84 0.68 0.42 0.42 0.52 0.62 0.70 0.72 0.71 0.68 0.63 0.72 0.75 0.77 0.79 0.84 0.98 1.15 1.34 1.64 2.26 3.04 3.56 3.54 3.16 2.83 2.69 2.76
1.34 1.31 1.24 1.19 1.21 1.15 1.08 0.95 0.83 0.76 0.78 0.79 0.59 0.48 0.54 0.67 0.84 0.86 0.84 0.80 0.72 0.79 0.82 0.83 0.83 0.84 0.91 1.05 1.23 1.42 1.68 2.09 2.69 3.25 3.45 3.20 2.86 2.75
1.55 1.52 1.54 1.50 1.46 1.39 1.35 1.15 0.98 0.92 0.87 0.89 0.76 0.63 0.63 0.72 0.97 1.07 1.05 0.98 0.91 0.83 0.85 0.86 0.89 0.89 0.89 0.92 1.02 1.17 1.40 1.77 2.20 2.78 3.34 3.47 3.14 2.86
1.38 1.36 1.44 1.58 1.65 1.65 1.64 1.46 1.30 1.27 1.19 1.15 1.02 0.86 0.79 0.88 1.07 1.15 1.22 1.17 1.17 1.01 0.86 0.80 0.81 0.82 0.83 0.88 0.96 1.06 1.23 1.46 1.76 2.23 2.82 3.34 3.39 3.17
1.24 1.19 1.20 1.34 1.41 1.47 1.59 1.61 1.63 1.69 1.63 1.48 1.29 1.12 0.93 0.88 1.01 1.29 1.41 1.51 1.53 1.23 1.06 0.98 0.86 0.87 0.88 0.87 0.91 0.94 1.11 1.35 1.60 1.88 2.27 2.79 3.23 3.35
1.08 1.07 1.07 1.10 1.20 1.13 1.24 1.38 1.48 1.65 1.76 1.73 1.64 1.31 1.06 0.98 1.16 1.41 1.52 1.60 1.52 1.36 1.35 1.42 1.18 1.04 0.98 0.98 1.00 0.94 1.03 1.24 1.46 1.68 1.93 2.29 2.76 3.20
1.11 1.01 0.96 0.97 1.11 1.17 1.21 1.21 1.17 1.29 1.53 1.68 1.75 1.53 1.30 1.26 1.48 1.72 1.86 1.88 1.73 1.62 1.58 1.71 1.43 1.23 1.15 1.10 1.07 0.98 0.98 1.11 1.30 1.48 1.71 1.93 2.29 2.71
1.24 1.16 1.06 0.94 1.16 1.28 1.20 1.13 1.03 1.08 1.24 1.51 1.67 1.68 1.66 1.70 1.85 2.10 2.23 2.28 2.16 1.85 1.71 1.79 1.63 1.42 1.37 1.37 1.27 1.13 1.00 1.02 1.13 1.28 1.41 1.62 1.86 2.23
1.26 1.23 1.31 1.23 1.29 1.25 1.11 1.13 1.15 1.02 0.99 1.08 1.16 1.26 1.27 1.32 1.59 1.82 1.99 2.17 2.14 2.13 1.84 1.77 1.80 1.73 1.88 1.62 1.35 1.11 0.98 0.98 1.01 1.08 1.15 1.29 1.47 1.63
1.29 1.24 1.23 1.35 1.29 1.21 1.15 1.12 1.22 1.07 0.95 1.01 1.03 1.05 1.08 1.16 1.26 1.46 1.70 1.90 2.06 2.06 1.79 1.85 2.09 1.92 1.94 1.83 1.56 1.25 0.97 0.85 0.85 0.97 1.06 1.16 1.24 1.27
1.24 1.10 1.12 1.28 1.26 1.25 1.17 1.21 1.27 1.22 1.11 1.09 1.02 0.97 1.00 1.09 1.17 1.27 1.46 1.61 1.72 1.79 1.67 1.81 2.22 2.08 1.94 1.73 1.57 1.45 1.18 0.93 0.81 0.83 0.89 1.13 1.20 1.24
1.33 1.36 1.31 1.32 1.26 1.15 1.13 1.18 1.20 1.16 1.20 1.16 1.00 0.91 0.90 1.01 1.09 1.21 1.30 1.41 1.52 1.59 1.68 1.74 1.98 2.10 2.07 1.85 1.48 1.38 1.36 1.22 0.94 0.85 0.85 0.88 0.93 1.04
1.41 1.41 1.40 1.38 1.28 1.20 1.19 1.10 1.03 1.09 1.17 1.11 1.00 0.95 0.93 0.98 1.08 1.18 1.30 1.35 1.51 1.57 1.64 1.73 1.88 2.14 2.18 1.77 1.55 1.40 1.22 1.31 1.16 0.88 0.82 0.84 0.85 0.82
1.42 1.44 1.38 1.32 1.30 1.20 1.11 1.05 1.03 1.08 1.11 1.04 1.03 1.07 1.04 1.04 1.07 1.11 1.26 1.35 1.48 1.47 1.59 1.79 1.88 2.03 2.12 1.99 1.84 1.50 1.22 1.11 1.06 0.91 0.85 0.93 0.98 0.90
1.42 1.35 1.18 1.11 1.10 1.07 1.04 1.01 1.00 1.02 0.97 0.97 1.02 1.05 1.07 1.07 1.09 1.10 1.20 1.33 1.39 1.35 1.45 1.66 1.88 2.14 2.29 2.28 2.06 1.65 1.35 1.17 1.10 0.99 0.85 0.91 1.07 1.07
1.19 1.05 0.94 0.95 0.95 0.91 0.89 0.88 0.86 0.84 0.88 0.93 0.97 0.99 1.04 1.07 1.10 1.14 1.19 1.26 1.29 1.30 1.38 1.53 1.82 2.11 2.21 2.21 2.28 1.93 1.56 1.32 1.26 1.23 1.05 0.89 0.96 1.02
0.96 0.94 0.89 0.85 0.85 0.84 0.80 0.79 0.77 0.78 0.86 0.93 0.93 0.92 0.96 1.04 1.07 1.08 1.11 1.19 1.26 1.31 1.37 1.45 1.70 1.97 2.07 1.93 2.00 2.09 1.98 1.61 1.38 1.38 1.26 1.07 1.02 1.16
0.92 0.87 0.84 0.84 0.82 0.79 0.77 0.77 0.79 0.80 0.81 0.88 0.92 0.90 0.91 0.98 1.01 0.98 1.01 1.13 1.24 1.30 1.32 1.32 1.49 1.78 1.93 1.85 1.78 1.81 1.98 2.01 1.64 1.42 1.32 1.31 1.31 1.35
0.89 0.88 0.84 0.84 0.84 0.81 0.81 0.81 0.82 0.79 0.78 0.81 0.83 0.85 0.88 0.93 0.96 0.93 0.97 1.05 1.10 1.14 1.20 1.24 1.36 1.70 1.97 1.99 1.81 1.69 1.83 2.04 2.09 1.79 1.48 1.37 1.47 1.60
0.92 0.92 0.89 0.85 0.81 0.79 0.79 0.78 0.77 0.74 0.72 0.73 0.75 0.78 0.82 0.87 0.87 0.89 0.91 0.95 0.99 1.05 1.13 1.25 1.35 1.59 1.88 1.97 1.90 1.74 1.72 1.81 1.92 1.91 1.90 1.60 1.19 0.99

GEFSNE_prec_meanprecacc_240.txt.gz
Total_Precipitation_Accumulation
0.79 0.76 0.76 0.70 0.69 0.72 0.78 0.92 1.10 0.92 0.51 0.34 0.35 0.38 0.39 0.45 0.53 0.51 0.47 0.52 0.58 0.66 0.74 0.83 0.91 1.03 1.36 2.06 3.08 3.83 3.74 3.08 2.38 2.03 2.11 2.47 3.01 3.53
0.87 0.84 0.82 0.79 0.76 0.77 0.80 0.81 0.88 0.98 0.73 0.37 0.33 0.38 0.44 0.46 0.54 0.53 0.53 0.61 0.62 0.64 0.69 0.74 0.83 0.97 1.12 1.41 2.04 3.04 3.70 3.64 3.05 2.50 2.34 2.50 2.81 3.34
0.91 0.91 0.88 0.84 0.84 0.80 0.80 0.78 0.75 0.84 0.85 0.45 0.34 0.40 0.51 0.55 0.59 0.60 0.61 0.61 0.59 0.63 0.69 0.75 0.79 0.90 1.05 1.24 1.52 2.15 3.08 3.63 3.65 3.20 2.86 2.73 2.76 2.93
1.05 1.03 0.99 0.97 0.99 0.93 0.89 0.83 0.76 0.74 0.85 0.69 0.43 0.43 0.52 0.63 0.71 0.73 0.71 0.68 0.64 0.72 0.75 0.77 0.80 0.85 0.99 1.16 1.35 1.66 2.28 3.06 3.59 3.58 3.21 2.88 2.73 2.79
1.34 1.31 1.25 1.20 1.21 1.15 1.08 0.96 0.84 0.77 0.79 0.80 0.60 0.49 0.55 0.68 0.84 0.87 0.84 0.80 0.72 0.79 0.82 0.83 0.84 0.85 0.91 1.06 1.25 1.44 1.71 2.12 2.72 3.28 3.48 3.23 2.90 2.79
1.55 1.52 1.54 1.51 1.46 1.40 1.36 1.16 0.99 0.93 0.88 0.90 0.78 0.64 0.63 0.72 0.97 1.08 1.06 0.98 0.91 0.83 0.85 0.86 0.89 0.90 0.89 0.93 1.03 1.18 1.43 1.79 2.22 2.81 3.37 3.50 3.17 2.90
1.38 1.36 1.45 1.58 1.65 1.66 1.65 1.47 1.31 1.28 1.20 1.17 1.04 0.87 0.79 0.88 1.07 1.16 1.23 1.18 1.18 1.01 0.86 0.81 0.82 0.82 0.83 0.89 0.97 1.07 1.25 1.48 1.78 2.25 2.85 3.38 3.43 3.22
1.24 1.19 1.20 1.34 1.42 1.48 1.60 1.62 1.64 1.71 1.65 1.50 1.31 1.13 0.94 0.89 1.02 1.30 1.42 1.51 1.53 1.23 1.06 0.98 0.87 0.88 0.88 0.87 0.92 0.96 1.13 1.37 1.62 1.90 2.30 2.83 3.28 3.40
1.08 1.08 1.07 1.11 1.21 1.14 1.25 1.39 1.49 1.66 1.78 1.74 1.66 1.32 1.07 0.99 1.17 1.42 1.53 1.61 1.52 1.36 1.35 1.42 1.18 1.05 0.98 0.98 1.01 0.96 1.05 1.26 1.48 1.70 1.96 2.32 2.80 3.25
1.11 1.01 0.96 0.97 1.12 1.18 1.21 1.22 1.18 1.30 1.54 1.68 1.76 1.54 1.31 1.27 1.48 1.72 1.86 1.89 1.73 1.62 1.59 1.72 1.43 1.23 1.15 1.10 1.08 0.99 1.00 1.13 1.32 1.51 1.74 1.97 2.32 2.75
1.24 1.16 1.06 0.94 1.17 1.29 1.21 1.14 1.04 1.08 1.24 1.51 1.67 1.69 1.66 1.71 1.86 2.10 2.24 2.29 2.16 1.85 1.72 1.80 1.64 1.43 1.37 1.37 1.27 1.14 1.01 1.04 1.16 1.31 1.45 1.65 1.90 2.27
1.26 1.24 1.31 1.23 1.30 1.26 1.12 1.14 1.15 1.02 1.00 1.08 1.17 1.26 1.27 1.32 1.60 1.83 2.00 2.19 2.16 2.15 1.84 1.78 1.81 1.75 1.90 1.63 1.36 1.12 0.99 0.99 1.04 1.11 1.18 1.32 1.51 1.66
1.29 1.24 1.23 1.36 1.30 1.22 1.15 1.12 1.22 1.07 0.96 1.02 1.04 1.05 1.08 1.16 1.26 1.46 1.71 1.92 2.09 2.08 1.80 1.87 2.11 1.94 1.97 1.85 1.57 1.26 0.98 0.86 0.88 1.00 1.09 1.19 1.27 1.31
1.24 1.11 1.13 1.28 1.26 1.26 1.18 1.22 1.28 1.23 1.11 1.09 1.03 0.97 1.00 1.09 1.17 1.28 1.46 1.63 1.73 1.80 1.68 1.82 2.25 2.11 1.98 1.76 1.59 1.47 1.19 0.94 0.84 0.86 0.93 1.16 1.23 1.28
1.34 1.36 1.31 1.32 1.27 1.15 1.13 1.18 1.20 1.16 1.21 1.16 1.01 0.91 0.91 1.01 1.09 1.22 1.30 1.42 1.52 1.60 1.69 1.75 2.00 2.12 2.10 1.88 1.51 1.40 1.38 1.24 0.97 0.88 0.89 0.91 0.97 1.07
1.42 1.41 1.40 1.38 1.28 1.20 1.19 1.10 1.03 1.09 1.17 1.12 1.01 0.96 0.93 0.99 1.09 1.19 1.30 1.36 1.52 1.57 1.64 1.74 1.89 2.16 2.21 1.79 1.57 1.43 1.24 1.34 1.19 0.92 0.85 0.87 0.88 0.85
1.42 1.44 1.38 1.32 1.31 1.20 1.11 1.06 1.03 1.08 1.11 1.04 1.04 1.08 1.05 1.05 1.08 1.11 1.26 1.36 1.49 1.48 1.60 1.80 1.89 2.04 2.14 2.01 1.86 1.52 1.24 1.13 1.10 0.95 0.88 0.96 1.01 0.94
1.42 1.35 1.19 1.12 1.11 1.07 1.04 1.02 1.01 1.02 0.97 0.98 1.02 1.06 1.07 1.08 1.09 1.10 1.20 1.34 1.40 1.36 1.46 1.67 1.89 2.15 2.30 2.30 2.08 1.67 1.37 1.20 1.13 1.02 0.89 0.95 1.12 1.11
1.19 1.06 0.95 0.96 0.97 0.92 0.90 0.89 0.87 0.85 0.88 0.94 0.98 1.00 1.04 1.08 1.11 1.15 1.20 1.27 1.30 1.31 1.39 1.54 1.84 2.13 2.24 2.24 2.31 1.96 1.60 1.37 1.30 1.27 1.08 0.93 1.01 1.07
0.97 0.95 0.90 0.86 0.87 0.85 0.81 0.80 0.78 0.80 0.87 0.94 0.94 0.93 0.97 1.05 1.08 1.09 1.12 1.20 1.27 1.32 1.38 1.47 1.73 2.00 2.13 1.99 2.06 2.13 2.03 1.66 1.42 1.42 1.30 1.11 1.06 1.20
0.93 0.87 0.85 0.85 0.83 0.80 0.79 0.79 0.81 0.82 0.83 0.90 0.93 0.91 0.92 1.00 1.03 0.99 1.03 1.15 1.26 1.32 1.35 1.35 1.52 1.81 1.97 1.89 1.83 1.85 2.01 2.06 1.68 1.46 1.36 1.35 1.35 1.40
0.90 0.89 0.85 0.86 0.85 0.82 0.82 0.84 0.84 0.81 0.79 0.83 0.85 0.87 0.89 0.94 0.97 0.95 0.98 1.07 1.13 1.17 1.23 1.27 1.38 1.72 2.00 2.03 1.86 1.74 1.88 2.07 2.12 1.82 1.52 1.41 1.52 1.69
0.93 0.93 0.90 0.86 0.82 0.80 0.80 0.80 0.79 0.76 0.74 0.75 0.77 0.79 0.84 0.89 0.88 0.90 0.92 0.96 1.01 1.06 1.16 1.27 1.37 1.61 1.91 2.00 1.94 1.78 1.76 1.85 1.96 1.96 1.94 1.65 1.24 1.06

GEFSNE_prec_meanprecacc_246.txt.gz
Total_Precipitation_Accumulation
0.79 0.76 0.76 0.70 0.69 0.72 0.78 0.92 1.11 0.92 0.51 0.34 0.36 0.39 0.40 0.46 0.55 0.52 0.47 0.52 0.59 0.67 0.75 0.84 0.93 1.04 1.38 2.07 3.09 3.84 3.76 3.10 2.40 2.06 2.14 2.51 3.05 3.58
0.87 0.84 0.82 0.79 0.76 0.77 0.80 0.81 0.89 0.98 0.74 0.37 0.34 0.39 0.46 0.48 0.57 0.54 0.54 0.61 0.63 0.65 0.70 0.75 0.84 0.98 1.14 1.43 2.06 3.06 3.72 3.66 3.07 2.53 2.38 2.54 2.85 3.38
0.91 0.91 0.88 0.84 0.84 0.80 0.80 0.78 0.76 0.84 0.86 0.45 0.35 0.41 0.52 0.57 0.61 0.61 0.62 0.61 0.59 0.63 0.70 0.75 0.80 0.91 1.06 1.25 1.53 2.17 3.10 3.65 3.67 3.22 2.88 2.76 2.80 2.98
1.06 1.03 0.99 0.97 1.00 0.94 0.89 0.83 0.76 0.75 0.86 0.70 0.44 0.43 0.53 0.64 0.72 0.73 0.71 0.68 0.64 0.72 0.76 0.77 0.80 0.86 0.99 1.16 1.36 1.67 2.30 3.08 3.61 3.60 3.23 2.91 2.77 2.83
1.34 1.31 1.25 1.20 1.21 1.16 1.08 0.96 0.84 0.77 0.80 0.80 0.61 0.50 0.56 0.69 0.85 0.87 0.84 0.80 0.72 0.79 0.82 0.83 0.84 0.85 0.92 1.07 1.25 1.45 1.72 2.13 2.73 3.30 3.50 3.26 2.93 2.83
1.55 1.52 1.54 1.51 1.46 1.40 1.36 1.16 0.99 0.93 0.89 0.91 0.79 0.64 0.64 0.73 0.98 1.08 1.06 0.98 0.91 0.83 0.85 0.86 0.89 0.90 0.89 0.93 1.03 1.19 1.44 1.80 2.24 2.83 3.39 3.53 3.20 2.94
1.38 1.36 1.45 1.59 1.65 1.66 1.65 1.47 1.31 1.28 1.21 1.18 1.04 0.88 0.80 0.89 1.08 1.17 1.24 1.18 1.18 1.01 0.86 0.81 0.82 0.82 0.83 0.89 0.98 1.08 1.27 1.49 1.80 2.27 2.88 3.40 3.46 3.26
1.24 1.19 1.20 1.34 1.42 1.49 1.61 1.62 1.65 1.71 1.65 1.50 1.32 1.14 0.95 0.90 1.03 1.31 1.43 1.52 1.54 1.23 1.06 0.98 0.87 0.88 0.88 0.87 0.93 0.97 1.14 1.38 1.64 1.92 2.32 2.86 3.31 3.44
1.08 1.08 1.07 1.11 1.21 1.14 1.25 1.39 1.49 1.67 1.78 1.75 1.66 1.33 1.08 1.00 1.18 1.43 1.54 1.62 1.53 1.36 1.36 1.42 1.18 1.05 0.98 0.99 1.02 0.96 1.06 1.27 1.49 1.72 1.98 2.35 2.83 3.29
1.11 1.01 0.97 0.97 1.12 1.18 1.22 1.22 1.18 1.30 1.54 1.69 1.76 1.54 1.32 1.27 1.49 1.73 1.87 1.89 1.73 1.62 1.59 1.72 1.43 1.23 1.15 1.10 1.08 0.99 1.00 1.14 1.33 1.52 1.76 1.99 2.36 2.80
1.24 1.16 1.06 0.94 1.17 1.30 1.22 1.14 1.04 1.08 1.24 1.51 1.68 1.69 1.67 1.72 1.87 2.11 2.24 2.29 2.17 1.86 1.72 1.80 1.65 1.43 1.38 1.38 1.27 1.14 1.02 1.05 1.17 1.32 1.47 1.67 1.93 2.31
1.27 1.24 1.31 1.23 1.30 1.26 1.12 1.14 1.16 1.03 1.00 1.09 1.17 1.26 1.28 1.32 1.60 1.84 2.01 2.20 2.17 2.16 1.85 1.80 1.82 1.76 1.91 1.63 1.36 1.12 0.99 1.00 1.04 1.12 1.20 1.35 1.54 1.69
1.29 1.24 1.23 1.36 1.30 1.22 1.16 1.12 1.23 1.08 0.96 1.02 1.04 1.05 1.09 1.17 1.27 1.47 1.71 1.93 2.11 2.10 1.81 1.89 2.14 1.95 1.99 1.86 1.57 1.27 0.99 0.87 0.88 1.01 1.10 1.21 1.30 1.35
1.24 1.11 1.13 1.28 1.27 1.26 1.18 1.22 1.28 1.23 1.12 1.09 1.03 0.97 1.00 1.09 1.18 1.28 1.47 1.63 1.74 1.81 1.69 1.84 2.28 2.13 2.00 1.78 1.60 1.47 1.19 0.95 0.85 0.87 0.94 1.18 1.26 1.31
1.34 1.36 1.32 1.33 1.27 1.15 1.13 1.18 1.20 1.16 1.21 1.17 1.02 0.92 0.91 1.01 1.10 1.22 1.30 1.42 1.52 1.60 1.69 1.76 2.02 2.14 2.13 1.92 1.54 1.41 1.39 1.26 0.98 0.90 0.91 0.94 1.00 1.11
1.42 1.41 1.40 1.38 1.29 1.20 1.19 1.10 1.03 1.09 1.18 1.12 1.02 0.97 0.94 0.99 1.09 1.19 1.30 1.36 1.52 1.58 1.64 1.74 1.91 2.19 2.23 1.82 1.59 1.45 1.27 1.37 1.21 0.94 0.87 0.90 0.92 0.89
1.43 1.44 1.38 1.33 1.31 1.20 1.11 1.06 1.04 1.08 1.12 1.05 1.05 1.09 1.05 1.05 1.08 1.12 1.26 1.36 1.49 1.48 1.60 1.80 1.90 2.06 2.15 2.03 1.88 1.54 1.26 1.16 1.12 0.98 0.90 0.99 1.05 0.98
1.42 1.36 1.19 1.12 1.11 1.08 1.05 1.02 1.01 1.02 0.98 0.99 1.03 1.07 1.08 1.08 1.10 1.11 1.21 1.35 1.41 1.37 1.46 1.68 1.90 2.16 2.31 2.31 2.10 1.69 1.39 1.22 1.15 1.04 0.91 0.97 1.15 1.14
1.20 1.06 0.95 0.97 0.97 0.92 0.90 0.89 0.87 0.86 0.89 0.95 0.99 1.01 1.05 1.09 1.12 1.16 1.20 1.28 1.31 1.31 1.40 1.55 1.85 2.15 2.26 2.27 2.33 1.98 1.63 1.39 1.32 1.28 1.10 0.97 1.05 1.11
0.98 0.96 0.91 0.87 0.88 0.86 0.82 0.81 0.79 0.80 0.88 0.95 0.95 0.94 0.98 1.06 1.09 1.10 1.13 1.21 1.28 1.33 1.39 1.48 1.75 2.03 2.17 2.04 2.10 2.16 2.05 1.69 1.45 1.45 1.33 1.14 1.09 1.25
0.93 0.88 0.86 0.86 0.84 0.81 0.80 0.80 0.82 0.83 0.85 0.91 0.95 0.92 0.93 1.01 1.04 1.00 1.04 1.16 1.27 1.34 1.37 1.38 1.54 1.84 2.00 1.93 1.87 1.88 2.04 2.09 1.72 1.50 1.39 1.38 1.39 1.44
0.91 0.90 0.86 0.86 0.86 0.84 0.84 0.85 0.86 0.83 0.81 0.85 0.87 0.88 0.90 0.96 0.99 0.96 1.00 1.08 1.14 1.19 1.26 1.29 1.40 1.73 2.01 2.06 1.90 1.77 1.91 2.09 2.14 1.84 1.54 1.44 1.58 1.77
0.94 0.94 0.91 0.87 0.84 0.82 0.82 0.82 0.82 0.79 0.76 0.78 0.80 0.81 0.85 0.90 0.90 0.92 0.94 0.98 1.03 1.09 1.17 1.29 1.38 1.62 1.93 2.03 1.97 1.81 1.79 1.87 1.98 1.98 1.97 1.68 1.28 1.11

GEFSNE_prec_meanprecacc_252.txt.gz
Total_Precipitation_Accumulation
0.80 0.76 0.76 0.70 0.69 0.73 0.78 0.93 1.12 0.93 0.51 0.34 0.36 0.39 0.41 0.47 0.55 0.53 0.48 0.53 0.60 0.69 0.78 0.89 0.96 1.06 1.39 2.09 3.11 3.85 3.77 3.12 2.42 2.08 2.17 2.54 3.09 3.62
0.87 0.84 0.82 0.79 0.76 0.77 0.80 0.82 0.89 0.99 0.75 0.37 0.34 0.39 0.46 0.48 0.57 0.54 0.54 0.62 0.64 0.67 0.73 0.78 0.86 0.99 1.15 1.44 2.07 3.07 3.73 3.67 3.09 2.55 2.40 2.57 2.88 3.42
0.92 0.92 0.88 0.84 0.84 0.80 0.81 0.78 0.76 0.84 0.86 0.45 0.35 0.41 0.52 0.57 0.61 0.61 0.62 0.61 0.59 0.64 0.71 0.76 0.80 0.92 1.06 1.26 1.54 2.18 3.11 3.66 3.69 3.24 2.91 2.79 2.83 3.01
1.06 1.03 0.99 0.97 1.00 0.94 0.89 0.83 0.76 0.75 0.86 0.70 0.44 0.43 0.53 0.64 0.72 0.74 0.71 0.68 0.64 0.72 0.76 0.78 0.80 0.86 1.00 1.17 1.37 1.68 2.31 3.09 3.62 3.62 3.25 2.93 2.79 2.87
1.34 1.31 1.25 1.20 1.21 1.16 1.08 0.96 0.85 0.78 0.80 0.81 0.61 0.50 0.56 0.69 0.85 0.87 0.85 0.80 0.72 0.79 0.83 0.84 0.85 0.86 0.92 1.07 1.26 1.46 1.73 2.15 2.75 3.32 3.52 3.28 2.95 2.86
1.56 1.53 1.55 1.51 1.46 1.40 1.36 1.16 0.99 0.93 0.89 0.91 0.79 0.65 0.64 0.73 0.98 1.09 1.07 0.99 0.92 0.83 0.85 0.87 0.90 0.90 0.90 0.94 1.04 1.20 1.45 1.81 2.25 2.84 3.41 3.54 3.22 2.96
1.38 1.37 1.45 1.59 1.65 1.66 1.65 1.47 1.32 1.29 1.21 1.18 1.05 0.88 0.80 0.89 1.08 1.17 1.24 1.19 1.18 1.02 0.87 0.81 0.82 0.82 0.83 0.89 0.98 1.09 1.28 1.51 1.81 2.29 2.89 3.42 3.48 3.28
1.25 1.19 1.21 1.34 1.42 1.49 1.61 1.62 1.65 1.71 1.66 1.51 1.32 1.14 0.95 0.90 1.03 1.31 1.44 1.53 1.54 1.24 1.07 0.99 0.87 0.88 0.88 0.88 0.93 0.98 1.15 1.39 1.65 1.93 2.34 2.87 3.33 3.46
1.09 1.08 1.08 1.11 1.21 1.14 1.25 1.39 1.50 1.67 1.79 1.75 1.67 1.33 1.09 1.00 1.19 1.44 1.55 1.63 1.54 1.37 1.36 1.42 1.19 1.05 0.99 0.99 1.02 0.97 1.07 1.27 1.50 1.73 2.00 2.37 2.85 3.31
1.12 1.01 0.97 0.97 1.12 1.18 1.22 1.22 1.18 1.30 1.54 1.69 1.76 1.55 1.32 1.28 1.50 1.74 1.88 1.90 1.73 1.62 1.59 1.72 1.43 1.24 1.16 1.11 1.09 1.00 1.01 1.14 1.34 1.53 1.77 2.01 2.38 2.81
1.25 1.16 1.06 0.94 1.18 1.30 1.22 1.14 1.04 1.09 1.24 1.51 1.68 1.69 1.68 1.72 1.87 2.12 2.25 2.30 2.17 1.86 1.72 1.81 1.65 1.44 1.38 1.38 1.28 1.15 1.02 1.05 1.18 1.34 1.49 1.70 1.95 2.33
1.27 1.24 1.31 1.24 1.31 1.27 1.12 1.14 1.16 1.03 1.00 1.09 1.17 1.26 1.28 1.33 1.61 1.84 2.02 2.22 2.19 2.17 1.86 1.81 1.83 1.77 1.92 1.64 1.36 1.13 1.00 1.00 1.05 1.14 1.23 1.37 1.56 1.72
1.30 1.24 1.23 1.36 1.30 1.23 1.16 1.13 1.23 1.08 0.96 1.02 1.04 1.06 1.09 1.17 1.27 1.47 1.72 1.94 2.13 2.12 1.82 1.92 2.15 1.96 2.00 1.87 1.58 1.27 0.99 0.88 0.89 1.02 1.12 1.23 1.32 1.38
1.24 1.11 1.13 1.28 1.27 1.26 1.18 1.22 1.28 1.23 1.12 1.10 1.03 0.98 1.01 1.10 1.18 1.29 1.47 1.63 1.74 1.82 1.70 1.86 2.30 2.16 2.03 1.80 1.62 1.48 1.20 0.96 0.86 0.89 0.96 1.20 1.27 1.33
1.34 1.36 1.32 1.33 1.27 1.15 1.13 1.18 1.20 1.16 1.21 1.17 1.02 0.92 0.92 1.02 1.10 1.22 1.31 1.42 1.52 1.60 1.69 1.77 2.04 2.17 2.15 1.95 1.56 1.42 1.41 1.27 1.00 0.92 0.92 0.96 1.02 1.14
1.42 1.42 1.40 1.39 1.29 1.20 1.19 1.10 1.03 1.09 1.18 1.13 1.02 0.97 0.94 0.99 1.09 1.19 1.31 1.36 1.53 1.58 1.65 1.75 1.91 2.21 2.25 1.83 1.61 1.47 1.29 1.39 1.23 0.96 0.89 0.92 0.94 0.92
1.43 1.44 1.39 1.33 1.31 1.21 1.11 1.06 1.04 1.08 1.12 1.05 1.05 1.09 1.06 1.06 1.09 1.12 1.27 1.37 1.50 1.49 1.61 1.81 1.90 2.07 2.17 2.04 1.89 1.55 1.27 1.17 1.13 0.99 0.92 1.01 1.06 1.01
1.43 1.36 1.20 1.12 1.12 1.08 1.05 1.02 1.01 1.03 0.98 0.99 1.04 1.07 1.09 1.09 1.10 1.11 1.21 1.35 1.42 1.38 1.47 1.69 1.90 2.17 2.32 2.32 2.11 1.71 1.40 1.23 1.16 1.05 0.92 0.99 1.17 1.17
1.20 1.07 0.96 0.97 0.98 0.93 0.91 0.90 0.88 0.86 0.90 0.96 1.00 1.02 1.06 1.09 1.12 1.16 1.21 1.28 1.31 1.32 1.40 1.56 1.86 2.17 2.28 2.29 2.35 1.99 1.64 1.40 1.32 1.29 1.12 0.99 1.09 1.15
0.98 0.96 0.92 0.88 0.88 0.87 0.82 0.81 0.79 0.81 0.89 0.96 0.96 0.95 0.99 1.07 1.10 1.10 1.14 1.22 1.30 1.34 1.40 1.49 1.76 2.06 2.21 2.08 2.14 2.18 2.07 1.70 1.47 1.47 1.34 1.16 1.12 1.28
0.94 0.88 0.87 0.87 0.85 0.82 0.80 0.81 0.83 0.84 0.85 0.92 0.96 0.93 0.94 1.02 1.05 1.01 1.05 1.17 1.29 1.35 1.39 1.40 1.56 1.86 2.02 1.96 1.91 1.91 2.06 2.10 1.74 1.53 1.42 1.41 1.41 1.47
0.91 0.90 0.86 0.87 0.87 0.84 0.84 0.86 0.86 0.84 0.82 0.86 0.88 0.89 0.91 0.97 1.00 0.97 1.01 1.10 1.16 1.21 1.28 1.31 1.41 1.75 2.03 2.08 1.93 1.80 1.93 2.11 2.15 1.86 1.57 1.48 1.63 1.84
0.94 0.94 0.91 0.88 0.84 0.83 0.83 0.83 0.82 0.79 0.77 0.79 0.81 0.82 0.85 0.91 0.91 0.93 0.95 0.99 1.05 1.10 1.19 1.30 1.40 1.64 1.94 2.05 1.99 1.83 1.80 1.89 1.99 2.00 1.99 1.71 1.31 1.16